| time (UTC) | temp F | wind direction | speed MPH | gust MPH | rain 1hr in | rain 24hr in | rain mn in | humidity % | barometer mb |
| 20260831024712 | 76 | 173 | 0.0 | 0.0 | 0.00 | 0.00 | 0.00 | 87 | 1008.7 |
| 20260831024513 | 76 | 173 | 0.0 | 0.0 | 0.00 | 0.00 | 0.00 | 87 | 1008.7 |
| 20260831024344 | 76 | 165 | 0.0 | 0.0 | 0.00 | 0.00 | 0.00 | 87 | 1008.8 |
| 20260831024313 | 76 | 305 | 0.0 | 0.0 | 0.00 | 0.00 | 0.00 | 87 | 1008.8 |
| 20260831024307 | 76 | 159 | 0.0 | 0.0 | 0.00 | 0.00 | 0.00 | 87 | 1008.8 |
| 20260831023911 | 76 | 168 | 0.0 | 0.0 | 0.00 | 0.00 | 0.00 | 87 | 1008.7 |
| 20260831023816 | 76 | 155 | 0.0 | 0.0 | 0.00 | 0.00 | 0.00 | 87 | 1008.7 |
| 20260831023518 | 76 | 226 | 0.0 | 0.0 | 0.00 | 0.00 | 0.00 | 86 | 1008.8 |
| 20260831023234 | 0 | 0.0 | 0.0 | 0.00 | 0.00 | 0.00 | |||
| 20260831023202 | 0 | 0.0 | 0.0 | 0.00 | 0.00 | 0.00 | |||
| 20260831023034 | 0 | 0.0 | 0.0 | 0.00 | 0.00 | 0.00 | |||
| 20260831022834 | 0 | 0.0 | 0.0 | 0.00 | 0.00 | 0.00 | |||
| 20260831022711 | 0 | 0.0 | 0.0 | 0.00 | 0.00 | 0.00 | |||
| 20260831022702 | 0 | 0.0 | 0.0 | 0.00 | 0.00 | 0.00 | |||
| 20260831022408 | 0 | 0.0 | 0.0 | 0.00 | 0.00 | 0.00 | |||
| 20260831022310 | 0 | 0.0 | 0.0 | 0.00 | 0.00 | 0.00 | |||
| 20260831022207 | 0 | 0.0 | 0.0 | 0.00 | 0.00 | 0.00 | |||
| 20260831022006 | 0 | 0.0 | 0.0 | 0.00 | 0.00 | 0.00 | 1008.8 | ||
| 20260831021735 | 0 | 0.0 | 0.0 | 0.00 | 0.00 | 0.00 | 1008.8 | ||
| 20260831021634 | 77 | 190 | 0.0 | 0.0 | 0.00 | 0.00 | 0.00 | 84 | 1008.8 |
| 20260831021535 | 77 | 190 | 0.0 | 0.0 | 0.00 | 0.00 | 0.00 | 84 | 1008.8 |
| 20260831021335 | 77 | 190 | 0.0 | 0.0 | 0.00 | 0.00 | 0.00 | 84 | 1008.8 |
| 20260831021239 | 77 | 190 | 0.0 | 0.0 | 0.00 | 0.00 | 0.00 | 84 | 1008.8 |
| 20260831021132 | 77 | 190 | 0.0 | 0.0 | 0.00 | 0.00 | 0.00 | 84 | 1008.8 |
| 20260831020934 | 77 | 190 | 0.0 | 0.0 | 0.00 | 0.00 | 0.00 | 84 | 1008.9 |
| 20260831020732 | 77 | 190 | 0.0 | 0.0 | 0.00 | 0.00 | 0.00 | 84 | 1008.8 |
| 20260831020633 | 77 | 192 | 0.0 | 0.0 | 0.00 | 0.00 | 0.00 | 84 | 1008.9 |
| 20260831020612 | 77 | 190 | 0.0 | 0.0 | 0.00 | 0.00 | 0.00 | 84 | 1008.9 |
| 20260831020331 | 77 | 175 | 0.0 | 0.0 | 0.00 | 0.00 | 0.00 | 84 | 1009.0 |
| 20260831020231 | 77 | 176 | 0.0 | 0.0 | 0.00 | 0.00 | 0.00 | 84 | 1009.0 |
| 20260831020105 | 77 | 176 | 0.0 | 0.0 | 0.00 | 0.00 | 0.00 | 84 | 1008.9 |
| 20260831015930 | 78 | 188 | 0.0 | 0.0 | 0.00 | 0.00 | 0.00 | 84 | 1009.0 |
| 20260831015732 | 78 | 206 | 0.0 | 0.0 | 0.00 | 0.00 | 0.00 | 84 | 1009.0 |
| 20260831015603 | 78 | 157 | 0.0 | 0.0 | 0.00 | 0.00 | 0.00 | 84 | 1009.0 |
| 20260831015531 | 78 | 162 | 0.0 | 0.0 | 0.00 | 0.00 | 0.00 | 84 | 1009.0 |
| 20260831015331 | 78 | 169 | 0.0 | 0.0 | 0.00 | 0.00 | 0.00 | 84 | 1009.0 |
| 20260831015231 | 78 | 168 | 0.0 | 0.0 | 0.00 | 0.00 | 0.00 | 84 | 1008.9 |
| 20260831015103 | 78 | 162 | 0.0 | 0.0 | 0.00 | 0.00 | 0.00 | 84 | 1009.0 |
| 20260831014941 | 78 | 158 | 0.0 | 0.0 | 0.00 | 0.00 | 0.00 | 83 | 1009.0 |
| 20260831014932 | 78 | 182 | 0.0 | 0.0 | 0.00 | 0.00 | 0.00 | 83 | 1009.0 |
| 20260831014858 | 78 | 169 | 0.0 | 0.0 | 0.00 | 0.00 | 0.00 | 83 | 1008.9 |
| 20260831014532 | 78 | 52 | 0.0 | 0.0 | 0.00 | 0.00 | 0.00 | 83 | 1008.9 |
| 20260831014331 | 78 | 34 | 0.0 | 0.0 | 0.00 | 0.00 | 0.00 | 83 | 1009.0 |
| 20260831014136 | 78 | 204 | 0.0 | 0.0 | 0.00 | 0.00 | 0.00 | 83 | 1009.0 |
| 20260831014102 | 78 | 204 | 0.0 | 0.0 | 0.00 | 0.00 | 0.00 | 83 | 1009.0 |
| 20260831013930 | 78 | 202 | 0.0 | 0.0 | 0.00 | 0.00 | 0.00 | 83 | 1009.0 |
| 20260831013911 | 78 | 204 | 0.0 | 0.0 | 0.00 | 0.00 | 0.00 | 83 | 1009.0 |
| 20260831013851 | 78 | 204 | 0.0 | 0.0 | 0.00 | 0.00 | 0.00 | 82 | 1009.0 |
| 20260831013505 | 78 | 204 | 0.0 | 0.0 | 0.00 | 0.00 | 0.00 | 82 | 1008.9 |
| 20260831013358 | 78 | 204 | 0.0 | 0.0 | 0.00 | 0.00 | 0.00 | 82 | 1008.8 |
| 20260831013104 | 79 | 176 | 0.0 | 0.0 | 0.00 | 0.00 | 0.00 | 82 | 1008.9 |
| 20260831012903 | 79 | 176 | 0.0 | 0.0 | 0.00 | 0.00 | 0.00 | 82 | 1008.7 |
| 20260831012823 | 79 | 140 | 0.0 | 0.0 | 0.00 | 0.00 | 0.00 | 82 | 1008.6 |
| 20260831012806 | 79 | 65 | 0.0 | 0.0 | 0.00 | 0.00 | 0.00 | 82 | 1008.6 |
| 20260831012439 | 79 | 172 | 0.0 | 0.0 | 0.00 | 0.00 | 0.00 | 82 | 1008.6 |
| 20260831012240 | 79 | 173 | 0.0 | 0.0 | 0.00 | 0.00 | 0.00 | 82 | 1008.7 |
| 20260831012049 | 79 | 172 | 0.0 | 0.0 | 0.00 | 0.00 | 0.00 | 81 | 1008.6 |
| 20260831012033 | 79 | 166 | 0.0 | 0.0 | 0.00 | 0.00 | 0.00 | 81 | 1008.7 |
| 20260831011632 | 79 | 164 | 0.0 | 0.0 | 0.00 | 0.00 | 0.00 | 81 | 1008.6 |
| 20260831011532 | 79 | 161 | 0.0 | 0.0 | 0.00 | 0.00 | 0.00 | 81 | 1008.6 |
| 20260831011433 | 79 | 179 | 0.0 | 0.0 | 0.00 | 0.00 | 0.00 | 81 | 1008.6 |
| 20260831011231 | 79 | 178 | 0.0 | 0.0 | 0.00 | 0.00 | 0.00 | 81 | 1008.6 |
| 20260831011032 | 79 | 172 | 0.0 | 0.0 | 0.00 | 0.00 | 0.00 | 80 | 1008.7 |
| 20260831010830 | 80 | 158 | 0.0 | 0.0 | 0.00 | 0.00 | 0.00 | 80 | 1008.6 |
| 20260831010637 | 80 | 165 | 0.0 | 0.0 | 0.00 | 0.00 | 0.00 | 80 | 1008.7 |
| 20260831010630 | 80 | 158 | 0.0 | 0.0 | 0.00 | 0.00 | 0.00 | 80 | 1008.6 |
| 20260831010530 | 80 | 158 | 0.0 | 0.0 | 0.00 | 0.00 | 0.00 | 80 | 1008.6 |
| 20260831010231 | 80 | 176 | 0.0 | 0.0 | 0.00 | 0.00 | 0.00 | 80 | 1008.6 |
| 20260831010050 | 80 | 237 | 0.0 | 0.0 | 0.00 | 0.00 | 0.00 | 79 | 1008.6 |
| 20260831005831 | 80 | 227 | 0.0 | 0.0 | 0.00 | 0.00 | 0.00 | 79 | 1008.6 |
| 20260831005631 | 80 | 75 | 0.0 | 0.0 | 0.00 | 0.00 | 0.00 | 79 | 1008.4 |
| 20260831005532 | 80 | 183 | 0.0 | 0.0 | 0.00 | 0.00 | 0.00 | 78 | 1008.4 |
| 20260831005433 | 80 | 175 | 0.0 | 0.0 | 0.00 | 0.00 | 0.00 | 78 | 1008.2 |
| 20260831005229 | 80 | 173 | 0.0 | 0.0 | 0.00 | 0.00 | 0.00 | 78 | 1008.3 |
| 20260831005033 | 0 | 0.0 | 0.0 | 0.00 | 0.00 | 0.00 | 1008.2 | ||
| 20260831004610 | 0 | 0.0 | 0.0 | 0.00 | 0.00 | 0.00 | |||
| 20260831004406 | 0 | 0.0 | 0.0 | 0.00 | 0.00 | 0.00 | |||
| 20260831004331 | 0 | 0.0 | 0.0 | 0.00 | 0.00 | 0.00 | |||
| 20260831004309 | 0 | 0.0 | 0.0 | 0.00 | 0.00 | 0.00 | |||
| 20260831004109 | 0 | 0.0 | 0.0 | 0.00 | 0.00 | 0.00 | |||
| 20260831003830 | 0 | 0.0 | 0.0 | 0.00 | 0.00 | 0.00 | |||
| 20260831003735 | 0 | 0.0 | 0.0 | 0.00 | 0.00 | 0.00 | 1008.2 | ||
| 20260831003544 | 0 | 0.0 | 0.0 | 0.00 | 0.00 | 0.00 | 1008.2 | ||
| 20260831003525 | 0 | 0.0 | 0.0 | 0.00 | 0.00 | 0.00 | 1008.2 | ||
| 20260831003134 | 83 | 39 | 0.0 | 0.0 | 0.00 | 0.00 | 0.00 | 74 | 1008.2 |
| 20260831003044 | 83 | 39 | 0.0 | 0.0 | 0.00 | 0.00 | 0.00 | 74 | 1008.2 |
| 20260831003027 | 83 | 39 | 0.0 | 0.0 | 0.00 | 0.00 | 0.00 | 74 | 1008.2 |
| 20260831002756 | 83 | 39 | 0.0 | 0.0 | 0.00 | 0.00 | 0.00 | 74 | 1008.2 |
| 20260831002603 | 83 | 39 | 0.0 | 0.0 | 0.00 | 0.00 | 0.00 | 74 | 1008.2 |
| 20260831002301 | 83 | 39 | 0.0 | 0.0 | 0.00 | 0.00 | 0.00 | 74 | 1008.1 |
| 20260831002257 | 83 | 39 | 0.0 | 0.0 | 0.00 | 0.00 | 0.00 | 74 | 1008.1 |
| 20260831002054 | 83 | 37 | 0.0 | 0.0 | 0.00 | 0.00 | 0.00 | 74 | 1008.0 |
| 20260831002045 | 83 | 42 | 0.0 | 0.0 | 0.00 | 0.00 | 0.00 | 74 | 1008.0 |
| 20260831002014 | 83 | 34 | 0.0 | 0.0 | 0.00 | 0.00 | 0.00 | 74 | 1008.0 |
| 20260831001631 | 84 | 27 | 0.0 | 0.0 | 0.00 | 0.00 | 0.00 | 74 | 1008.0 |
| 20260831001437 | 84 | 47 | 0.0 | 0.0 | 0.00 | 0.00 | 0.00 | 73 | 1007.8 |
| 20260831001336 | 84 | 172 | 0.0 | 0.0 | 0.00 | 0.00 | 0.00 | 72 | 1007.8 |
| 20260831001253 | 84 | 172 | 0.0 | 0.0 | 0.00 | 0.00 | 0.00 | 72 | 1007.8 |
| 20260831001136 | 84 | 172 | 0.0 | 0.0 | 0.00 | 0.00 | 0.00 | 72 | 1007.8 |
| 20260831001037 | 84 | 172 | 0.0 | 0.0 | 0.00 | 0.00 | 0.00 | 72 | 1007.8 |
| 20260831001009 | 84 | 172 | 0.0 | 0.0 | 0.00 | 0.00 | 0.00 | 72 | 1007.9 |
| 20260831000629 | 84 | 172 | 0.0 | 0.0 | 0.00 | 0.00 | 0.00 | 71 | 1007.9 |
| 20260831000432 | 85 | 173 | 0.0 | 0.0 | 0.00 | 0.00 | 0.00 | 71 | 1007.8 |
| 20260831000244 | 85 | 165 | 0.0 | 0.0 | 0.00 | 0.00 | 0.00 | 71 | 1007.8 |
| 20260831000229 | 85 | 164 | 0.0 | 0.0 | 0.00 | 0.00 | 0.00 | 71 | 1007.8 |
| 20260831000049 | 85 | 113 | 0.0 | 0.0 | 0.00 | 0.00 | 0.00 | 70 | 1007.8 |
| 20260831000044 | 85 | 166 | 0.0 | 0.0 | 0.00 | 0.00 | 0.00 | 70 | 1007.6 |
| 20260831000039 | 85 | 165 | 0.0 | 0.0 | 0.00 | 0.00 | 0.00 | 70 | 1007.6 |
| 20260831000006 | 85 | 165 | 0.0 | 0.0 | 0.00 | 0.00 | 0.00 | 70 | 1007.6 |
| 20260830235427 | 86 | 25 | 0.0 | 0.0 | 0.00 | 0.00 | 0.00 | 70 | 1007.6 |
| 20260830235242 | 86 | 25 | 0.0 | 0.0 | 0.00 | 0.00 | 0.00 | 70 | 1007.6 |
| 20260830235218 | 86 | 24 | 0.0 | 0.0 | 0.00 | 0.00 | 0.00 | 70 | 1007.6 |
| 20260830235041 | 86 | 93 | 0.0 | 0.0 | 0.00 | 0.00 | 0.00 | 70 | 1007.5 |
| 20260830235034 | 86 | 24 | 0.0 | 0.0 | 0.00 | 0.00 | 0.00 | 69 | 1007.5 |
| 20260830235000 | 86 | 18 | 0.0 | 0.0 | 0.00 | 0.00 | 0.00 | 70 | 1007.6 |
| 20260830234610 | 86 | 1 | 0.0 | 0.0 | 0.00 | 0.00 | 0.00 | 70 | 1007.5 |
| 20260830234417 | 86 | 32 | 0.0 | 1.0 | 0.00 | 0.00 | 0.00 | 70 | 1007.6 |
| 20260830234412 | 86 | 34 | 0.0 | 0.0 | 0.00 | 0.00 | 0.00 | 71 | 1007.5 |
| 20260830234235 | 86 | 34 | 0.0 | 0.0 | 0.00 | 0.00 | 0.00 | 70 | 1007.6 |
| 20260830234035 | 86 | 52 | 0.0 | 2.0 | 0.00 | 0.00 | 0.00 | 70 | 1007.8 |
| 20260830234025 | 86 | 159 | 0.0 | 1.0 | 0.00 | 0.00 | 0.00 | 70 | 1007.8 |
| 20260830233955 | 86 | 54 | 0.0 | 2.0 | 0.00 | 0.00 | 0.00 | 70 | 1007.6 |
| 20260830233605 | 86 | 169 | 0.0 | 3.0 | 0.00 | 0.00 | 0.00 | 71 | 1007.8 |
| 20260830233408 | 86 | 166 | 0.0 | 5.0 | 0.00 | 0.00 | 0.00 | 70 | 1007.9 |
| 20260830233234 | 86 | 168 | 0.0 | 5.0 | 0.00 | 0.00 | 0.00 | 70 | 1007.6 |
| 20260830233209 | 86 | 151 | 0.0 | 5.0 | 0.00 | 0.00 | 0.00 | 70 | 1007.6 |
| 20260830233055 | 86 | 173 | 0.0 | 9.0 | 0.00 | 0.00 | 0.00 | 70 | 1007.8 |
| 20260830233036 | 86 | 175 | 0.0 | 9.0 | 0.00 | 0.00 | 0.00 | 70 | 1007.6 |
| 20260830233026 | 86 | 66 | 0.0 | 9.0 | 0.00 | 0.00 | 0.00 | 71 | 1007.8 |
| 20260830232605 | 86 | 173 | 0.0 | 9.0 | 0.00 | 0.00 | 0.00 | 69 | 1007.8 |
| 20260830232402 | 87 | 196 | 0.0 | 9.0 | 0.00 | 0.00 | 0.00 | 69 | 1007.6 |
| 20260830232231 | 87 | 27 | 0.0 | 9.0 | 0.00 | 0.00 | 0.00 | 69 | 1007.8 |
| 20260830232202 | 87 | 154 | 0.0 | 9.0 | 0.00 | 0.00 | 0.00 | 69 | 1007.8 |
| 20260830232003 | 87 | 169 | 0.0 | 7.0 | 0.00 | 0.00 | 0.00 | 69 | 1007.8 |
| 20260830231803 | 87 | 179 | 0.0 | 7.0 | 0.00 | 0.00 | 0.00 | 69 | 1007.8 |
| 20260830231731 | 87 | 158 | 0.0 | 7.0 | 0.00 | 0.00 | 0.00 | 69 | 1007.9 |
| 20260830231701 | 87 | 185 | 0.0 | 6.0 | 0.00 | 0.00 | 0.00 | 70 | 1007.8 |
| 20260830231500 | 87 | 176 | 0.0 | 6.0 | 0.00 | 0.00 | 0.00 | 70 | 1007.9 |
| 20260830231234 | 87 | 147 | 0.0 | 6.0 | 0.00 | 0.00 | 0.00 | 70 | 1007.8 |
| 20260830231159 | 87 | 244 | 0.0 | 6.0 | 0.00 | 0.00 | 0.00 | 70 | 1007.8 |
| 20260830231002 | 87 | 155 | 0.0 | 6.0 | 0.00 | 0.00 | 0.00 | 70 | 1007.9 |
| 20260830230759 | 87 | 182 | 0.0 | 6.0 | 0.00 | 0.00 | 0.00 | 70 | 1007.9 |
| 20260830230730 | 87 | 162 | 0.0 | 6.0 | 0.00 | 0.00 | 0.00 | 70 | 1007.9 |
| 20260830230559 | 87 | 176 | 0.0 | 6.0 | 0.00 | 0.00 | 0.00 | 70 | 1007.9 |
| 20260830230529 | 87 | 175 | 0.0 | 6.0 | 0.00 | 0.00 | 0.00 | 72 | 1007.9 |
| 20260830230525 | 87 | 180 | 0.0 | 6.0 | 0.00 | 0.00 | 0.00 | 72 | 1007.9 |
| 20260830230505 | 87 | 165 | 0.0 | 6.0 | 0.00 | 0.00 | 0.00 | 71 | 1007.9 |
| 20260830230057 | 87 | 180 | 0.0 | 3.0 | 0.00 | 0.00 | 0.00 | 72 | 1007.9 |
| 20260830225757 | 87 | 180 | 0.0 | 5.0 | 0.00 | 0.00 | 0.00 | 72 | 1007.9 |
| 20260830225732 | 87 | 11 | 0.0 | 5.0 | 0.00 | 0.00 | 0.00 | 72 | 1007.9 |
| 20260830225556 | 87 | 351 | 0.0 | 6.0 | 0.00 | 0.00 | 0.00 | 72 | 1007.8 |
| 20260830225529 | 87 | 203 | 0.0 | 9.0 | 0.00 | 0.00 | 0.00 | 72 | 1007.8 |
| 20260830225509 | 87 | 185 | 0.0 | 9.0 | 0.00 | 0.00 | 0.00 | 72 | 1007.8 |
| 20260830225157 | 87 | 204 | 0.0 | 9.0 | 0.00 | 0.00 | 0.00 | 72 | 1007.8 |
| 20260830224955 | 87 | 168 | 0.0 | 9.0 | 0.00 | 0.00 | 0.00 | 72 | 1007.8 |
| 20260830224754 | 87 | 164 | 0.0 | 9.0 | 0.00 | 0.00 | 0.00 | 72 | 1007.9 |
| 20260830224729 | 87 | 168 | 0.0 | 9.0 | 0.00 | 0.00 | 0.00 | 72 | 1007.9 |
| 20260830224656 | 87 | 169 | 0.0 | 9.0 | 0.00 | 0.00 | 0.00 | 71 | 1007.8 |
| 20260830224525 | 87 | 172 | 0.0 | 7.0 | 0.00 | 0.00 | 0.00 | 72 | 1007.8 |
| 20260830224504 | 87 | 161 | 0.0 | 7.0 | 0.00 | 0.00 | 0.00 | 72 | 1007.9 |
| 20260830224155 | 87 | 144 | 0.0 | 7.0 | 0.00 | 0.00 | 0.00 | 71 | 1007.8 |
| 20260830223953 | 87 | 199 | 0.0 | 7.0 | 0.00 | 0.00 | 0.00 | 71 | 1007.8 |
| 20260830223754 | 87 | 169 | 0.0 | 9.0 | 0.00 | 0.00 | 0.00 | 71 | 1007.6 |
| 20260830223730 | 87 | 168 | 0.0 | 9.0 | 0.00 | 0.00 | 0.00 | 71 | 1007.6 |
| 20260830223636 | 87 | 6 | 0.0 | 9.0 | 0.00 | 0.00 | 0.00 | 71 | 1007.8 |
| 20260830223339 | 87 | 165 | 0.0 | 9.0 | 0.00 | 0.00 | 0.00 | 71 | 1007.5 |
| 20260830223237 | 87 | 169 | 0.0 | 9.0 | 0.00 | 0.00 | 0.00 | 71 | 1007.5 |
| 20260830223229 | 87 | 157 | 0.0 | 9.0 | 0.00 | 0.00 | 0.00 | 71 | 1007.5 |
| 20260830222935 | 87 | 164 | 0.0 | 9.0 | 0.00 | 0.00 | 0.00 | 71 | 1007.5 |
| 20260830222729 | 87 | 176 | 0.0 | 7.0 | 0.00 | 0.00 | 0.00 | 71 | 1007.5 |
| 20260830222534 | 87 | 127 | 0.0 | 7.0 | 0.00 | 0.00 | 0.00 | 71 | 1007.5 |
| 20260830222333 | 87 | 162 | 0.0 | 7.0 | 0.00 | 0.00 | 0.00 | 71 | 1007.5 |
| 20260830222231 | 87 | 172 | 0.0 | 10.0 | 0.00 | 0.00 | 0.00 | 72 | 1007.5 |
| 20260830222227 | 87 | 166 | 0.0 | 10.0 | 0.00 | 0.00 | 0.00 | 71 | 1007.4 |
| 20260830221931 | 88 | 178 | 0.0 | 10.0 | 0.00 | 0.00 | 0.00 | 72 | 1007.4 |
| 20260830221839 | 88 | 178 | 0.0 | 10.0 | 0.00 | 0.00 | 0.00 | 72 | 1007.5 |
| 20260830221732 | 88 | 178 | 0.0 | 10.0 | 0.00 | 0.00 | 0.00 | 72 | 1007.5 |
| 20260830221504 | 88 | 155 | 0.0 | 10.0 | 0.00 | 0.00 | 0.00 | 72 | 1007.5 |
| 20260830221302 | 88 | 151 | 0.0 | 10.0 | 0.00 | 0.00 | 0.00 | 71 | 1007.5 |
| 20260830221208 | 88 | 180 | 0.0 | 7.0 | 0.00 | 0.00 | 0.00 | 72 | 1007.5 |
| 20260830221102 | 88 | 173 | 0.0 | 5.0 | 0.00 | 0.00 | 0.00 | 72 | 1007.5 |
| 20260830220902 | 88 | 161 | 0.0 | 6.0 | 0.00 | 0.00 | 0.00 | 72 | 1007.5 |
| 20260830220708 | 88 | 213 | 0.0 | 6.0 | 0.00 | 0.00 | 0.00 | 73 | 1007.5 |
| 20260830220702 | 88 | 192 | 0.0 | 6.0 | 0.00 | 0.00 | 0.00 | 73 | 1007.5 |
| 20260830220559 | 88 | 183 | 0.0 | 6.0 | 0.00 | 0.00 | 0.00 | 72 | 1007.4 |
| 20260830220255 | 88 | 39 | 0.0 | 6.0 | 0.00 | 0.00 | 0.00 | 72 | 1007.5 |
| 20260830220207 | 88 | 32 | 0.0 | 6.0 | 0.00 | 0.00 | 0.00 | 71 | 1007.6 |
| 20260830220155 | 88 | 47 | 0.0 | 6.0 | 0.00 | 0.00 | 0.00 | 70 | 1007.6 |
| 20260830215853 | 89 | 0 | 0.0 | 5.0 | 0.00 | 0.00 | 0.00 | 71 | 1007.6 |
| 20260830215706 | 89 | 147 | 0.0 | 5.0 | 0.00 | 0.00 | 0.00 | 70 | 1007.5 |
| 20260830215658 | 89 | 145 | 0.0 | 5.0 | 0.00 | 0.00 | 0.00 | 70 | 1007.5 |
| 20260830215507 | 90 | 166 | 0.0 | 6.0 | 0.00 | 0.00 | 0.00 | 68 | 1007.5 |
| 20260830215459 | 89 | 3 | 0.0 | 4.0 | 0.00 | 0.00 | 0.00 | 69 | 1007.4 |
| 20260830215433 | 90 | 196 | 0.0 | 6.0 | 0.00 | 0.00 | 0.00 | 68 | 1007.5 |
| 20260830215156 | 90 | 258 | 0.0 | 6.0 | 0.00 | 0.00 | 0.00 | 68 | 1007.5 |
| 20260830215004 | 90 | 200 | 0.0 | 6.0 | 0.00 | 0.00 | 0.00 | 68 | 1007.5 |
| 20260830214959 | 90 | 202 | 0.0 | 6.0 | 0.00 | 0.00 | 0.00 | 68 | 1007.5 |
| 20260830214945 | 90 | 192 | 0.0 | 6.0 | 0.00 | 0.00 | 0.00 | 68 | 1007.4 |
| 20260830214457 | 90 | 243 | 0.0 | 6.0 | 0.00 | 0.00 | 0.00 | 69 | 1007.5 |
| 20260830214255 | 90 | 63 | 0.0 | 6.0 | 0.00 | 0.00 | 0.00 | 71 | 1007.5 |
| 20260830214204 | 90 | 24 | 0.0 | 6.0 | 0.00 | 0.00 | 0.00 | 68 | 1007.5 |
| 20260830214055 | 90 | 241 | 0.0 | 6.0 | 0.00 | 0.00 | 0.00 | 70 | 1007.5 |
| 20260830214008 | 89 | 192 | 0.0 | 6.0 | 0.00 | 0.00 | 0.00 | 71 | 1007.5 |
| 20260830214003 | 89 | 195 | 0.0 | 6.0 | 0.00 | 0.00 | 0.00 | 71 | 1007.5 |
| 20260830213946 | 89 | 106 | 0.0 | 6.0 | 0.00 | 0.00 | 0.00 | 70 | 1007.5 |
| 20260830213455 | 89 | 164 | 0.0 | 6.0 | 0.00 | 0.00 | 0.00 | 70 | 1007.5 |
| 20260830213356 | 89 | 20 | 0.0 | 5.0 | 0.00 | 0.00 | 0.00 | 68 | 1007.5 |
| 20260830213207 | 90 | 56 | 0.0 | 5.0 | 0.00 | 0.00 | 0.00 | 68 | 1007.5 |
| 20260830213056 | 90 | 31 | 0.0 | 5.0 | 0.00 | 0.00 | 0.00 | 69 | 1007.5 |
| 20260830212957 | 90 | 73 | 0.0 | 5.0 | 0.00 | 0.00 | 0.00 | 68 | 1007.5 |
| 20260830212945 | 90 | 31 | 0.0 | 5.0 | 0.00 | 0.00 | 0.00 | 69 | 1007.5 |
| 20260830212655 | 90 | 68 | 0.0 | 5.0 | 0.00 | 0.00 | 0.00 | 70 | 1007.5 |
| 20260830212453 | 90 | 41 | 0.0 | 4.0 | 0.00 | 0.00 | 0.00 | 69 | 1007.5 |
| 20260830212358 | 90 | 63 | 0.0 | 4.0 | 0.00 | 0.00 | 0.00 | 70 | 1007.4 |
| 20260830212202 | 90 | 39 | 0.0 | 5.0 | 0.00 | 0.00 | 0.00 | 70 | 1007.5 |
| 20260830212054 | 90 | 21 | 0.0 | 6.0 | 0.00 | 0.00 | 0.00 | 68 | 1007.4 |
| 20260830211958 | 90 | 37 | 0.0 | 7.0 | 0.00 | 0.00 | 0.00 | 70 | 1007.6 |
| 20260830211942 | 90 | 39 | 0.0 | 7.0 | 0.00 | 0.00 | 0.00 | 71 | 1007.5 |
| 20260830211655 | 89 | 38 | 0.0 | 7.0 | 0.00 | 0.00 | 0.00 | 70 | 1007.6 |
| 20260830211549 | 89 | 38 | 0.0 | 7.0 | 0.00 | 0.00 | 0.00 | 71 | 1007.6 |
| 20260830211253 | 89 | 27 | 0.0 | 7.0 | 0.00 | 0.00 | 0.00 | 70 | 1007.6 |
| 20260830211202 | 89 | 30 | 0.0 | 7.0 | 0.00 | 0.00 | 0.00 | 69 | 1007.8 |
| 20260830211053 | 89 | 31 | 0.0 | 7.0 | 0.00 | 0.00 | 0.00 | 69 | 1007.8 |
| 20260830210952 | 89 | 0 | 0.0 | 5.0 | 0.00 | 0.00 | 0.00 | 69 | 1007.8 |
| 20260830210654 | 90 | 207 | 0.0 | 5.0 | 0.00 | 0.00 | 0.00 | 69 | 1007.9 |
| 20260830210454 | 89 | 31 | 0.0 | 5.0 | 0.00 | 0.00 | 0.00 | 69 | 1007.9 |
| 20260830210253 | 89 | 188 | 0.0 | 10.0 | 0.00 | 0.00 | 0.00 | 69 | 1007.9 |
| 20260830210200 | 89 | 212 | 0.0 | 10.0 | 0.00 | 0.00 | 0.00 | 68 | 1007.9 |
| 20260830210153 | 89 | 188 | 0.0 | 10.0 | 0.00 | 0.00 | 0.00 | 69 | 1007.8 |
| 20260830205854 | 89 | 321 | 0.0 | 10.0 | 0.00 | 0.00 | 0.00 | 70 | 1007.9 |
| 20260830205702 | 89 | 42 | 0.0 | 10.0 | 0.00 | 0.00 | 0.00 | 70 | 1007.9 |
| 20260830205655 | 89 | 116 | 0.0 | 10.0 | 0.00 | 0.00 | 0.00 | 69 | 1007.9 |
| 20260830205553 | 89 | 86 | 0.0 | 10.0 | 0.00 | 0.00 | 0.00 | 71 | 1007.8 |
| 20260830205253 | 89 | 93 | 0.0 | 7.0 | 0.00 | 0.00 | 0.00 | 70 | 1007.9 |
| 20260830205158 | 89 | 161 | 0.0 | 7.0 | 0.00 | 0.00 | 0.00 | 73 | 1007.9 |
| 20260830205055 | 89 | 27 | 0.0 | 6.0 | 0.00 | 0.00 | 0.00 | 75 | 1007.9 |
| 20260830204855 | 89 | 18 | 0.0 | 6.0 | 0.00 | 0.00 | 0.00 | 73 | 1007.9 |
| 20260830204755 | 89 | 31 | 0.0 | 3.0 | 0.00 | 0.00 | 0.00 | 74 | 1007.9 |
| 20260830204659 | 89 | 63 | 0.0 | 5.0 | 0.00 | 0.00 | 0.00 | 74 | 1007.9 |
| 20260830204457 | 88 | 157 | 0.0 | 6.0 | 0.00 | 0.00 | 0.00 | 73 | 1007.9 |
| 20260830204256 | 88 | 164 | 0.0 | 6.0 | 0.00 | 0.00 | 0.00 | 74 | 1007.9 |
| 20260830204156 | 88 | 63 | 0.0 | 6.0 | 0.00 | 0.00 | 0.00 | 73 | 1007.9 |
| 20260830204056 | 88 | 238 | 0.0 | 6.0 | 0.00 | 0.00 | 0.00 | 74 | 1008.0 |
| 20260830203956 | 88 | 238 | 0.0 | 10.0 | 0.00 | 0.00 | 0.00 | 74 | 1008.1 |
| 20260830203657 | 88 | 28 | 0.0 | 10.0 | 0.00 | 0.00 | 0.00 | 74 | 1008.1 |
| 20260830203555 | 88 | 87 | 0.0 | 10.0 | 0.00 | 0.00 | 0.00 | 75 | 1008.1 |
| 20260830203444 | 88 | 7 | 0.0 | 10.0 | 0.00 | 0.00 | 0.00 | 75 | 1008.2 |
| 20260830203427 | 88 | 24 | 0.0 | 10.0 | 0.00 | 0.00 | 0.00 | 75 | 1008.1 |
| 20260830203055 | 88 | 49 | 0.0 | 10.0 | 0.00 | 0.00 | 0.00 | 75 | 1008.2 |
| 20260830202855 | 88 | 24 | 0.0 | 10.0 | 0.00 | 0.00 | 0.00 | 75 | 1008.3 |
| 20260830202656 | 87 | 31 | 0.0 | 10.0 | 0.00 | 0.00 | 0.00 | 75 | 1008.2 |
| 20260830202554 | 87 | 30 | 0.0 | 9.0 | 0.00 | 0.00 | 0.00 | 74 | 1008.3 |
| 20260830202458 | 88 | 31 | 0.0 | 11.0 | 0.00 | 0.00 | 0.00 | 73 | 1008.3 |
| 20260830202447 | 88 | 10 | 0.0 | 11.0 | 0.00 | 0.00 | 0.00 | 74 | 1008.3 |
| 20260830202427 | 88 | 32 | 0.0 | 9.0 | 0.00 | 0.00 | 0.00 | 75 | 1008.3 |
| 20260830201855 | 87 | 49 | 0.0 | 11.0 | 0.00 | 0.00 | 0.00 | 75 | 1008.2 |
| 20260830201656 | 87 | 20 | 0.0 | 11.0 | 0.00 | 0.00 | 0.00 | 75 | 1008.3 |
| 20260830201500 | 87 | 27 | 0.0 | 6.0 | 0.00 | 0.00 | 0.00 | 75 | 1008.4 |
| 20260830201455 | 87 | 334 | 0.0 | 11.0 | 0.00 | 0.00 | 0.00 | 75 | 1008.4 |
| 20260830201445 | 87 | 32 | 0.0 | 6.0 | 0.00 | 0.00 | 0.00 | 77 | 1008.4 |
| 20260830201424 | 87 | 1 | 0.0 | 10.0 | 0.00 | 0.00 | 0.00 | 75 | 1008.5 |
| 20260830200855 | 87 | 28 | 0.0 | 3.0 | 0.00 | 0.00 | 0.00 | 75 | 1008.5 |
| 20260830200817 | 87 | 0 | 0.0 | 0.0 | 0.00 | 0.00 | 0.00 | 74 | 1008.5 |
| 20260830200721 | 0 | 0.0 | 0.0 | 0.00 | 0.00 | 0.00 | |||
| 20260830200709 | 87 | 0 | 0.0 | 0.0 | 0.00 | 0.00 | 0.00 | 74 | 1008.5 |
| 20260830200701 | 0 | 0.0 | 0.0 | 0.00 | 0.00 | 0.00 | |||
| 20260830200307 | 0 | 0.0 | 0.0 | 0.00 | 0.00 | 0.00 | |||
| 20260830200108 | 0 | 0.0 | 0.0 | 0.00 | 0.00 | 0.00 | |||
| 20260830200013 | 0 | 0.0 | 0.0 | 0.00 | 0.00 | 0.00 | |||
| 20260830195906 | 0 | 0.0 | 0.0 | 0.00 | 0.00 | 0.00 | |||
| 20260830195658 | 0 | 0.0 | 0.0 | 0.00 | 0.00 | 0.00 | |||
| 20260830195635 | 0 | 0.0 | 0.0 | 0.00 | 0.00 | 0.00 | |||
| 20260830195609 | 0 | 0.0 | 0.0 | 0.00 | 0.00 | 0.00 | 1008.4 | ||
| 20260830195234 | 0 | 0.0 | 0.0 | 0.00 | 0.00 | 0.00 | 1008.4 | ||
| 20260830195048 | 0 | 0.0 | 0.0 | 0.00 | 0.00 | 0.00 | 1008.4 | ||
| 20260830194836 | 85 | 38 | 0.0 | 5.0 | 0.00 | 0.00 | 0.00 | 78 | 1008.4 |
| 20260830194607 | 85 | 38 | 0.0 | 6.0 | 0.00 | 0.00 | 0.00 | 78 | 1008.4 |
| 20260830194511 | 85 | 38 | 0.0 | 6.0 | 0.00 | 0.00 | 0.00 | 78 | 1008.4 |
| 20260830194331 | 85 | 38 | 0.0 | 6.0 | 0.00 | 0.00 | 0.00 | 78 | 1008.4 |
| 20260830194206 | 85 | 38 | 0.0 | 6.0 | 0.00 | 0.00 | 0.00 | 78 | 1008.4 |
| 20260830194030 | 85 | 38 | 0.0 | 6.0 | 0.00 | 0.00 | 0.00 | 78 | 1008.5 |
| 20260830193829 | 85 | 23 | 0.0 | 6.0 | 0.00 | 0.00 | 0.00 | 77 | 1008.5 |
| 20260830193733 | 85 | 34 | 0.0 | 5.0 | 0.00 | 0.00 | 0.00 | 77 | 1008.5 |
| 20260830193533 | 0 | 237 | 0.0 | 5.0 | 0.00 | 0.00 | 0.00 | 1008.6 | |
| 20260830193333 | 0 | 0.0 | 0.0 | 0.00 | 0.00 | 0.00 | 1008.6 | ||
| 20260830193004 | 0 | 0.0 | 0.0 | 0.00 | 0.00 | 0.00 | |||
| 20260830192834 | 0 | 0.0 | 0.0 | 0.00 | 0.00 | 0.00 | |||
| 20260830192802 | 0 | 0.0 | 0.0 | 0.00 | 0.00 | 0.00 | |||
| 20260830192532 | 0 | 0.0 | 0.0 | 0.00 | 0.00 | 0.00 | |||
| 20260830192430 | 0 | 0.0 | 0.0 | 0.00 | 0.00 | 0.00 | |||
| 20260830192305 | 0 | 0.0 | 0.0 | 0.00 | 0.00 | 0.00 | |||
| 20260830192131 | 0 | 0.0 | 0.0 | 0.00 | 0.00 | 0.00 | |||
| 20260830191931 | 0 | 0.0 | 0.0 | 0.00 | 0.00 | 0.00 | 1008.3 | ||
| 20260830191734 | 0 | 0.0 | 0.0 | 0.00 | 0.00 | 0.00 | 1008.3 | ||
| 20260830191703 | 0 | 0.0 | 0.0 | 0.00 | 0.00 | 0.00 | 1008.3 | ||
| 20260830191504 | 0 | 28 | 0.0 | 3.0 | 0.00 | 0.00 | 0.00 | 1008.3 | |
| 20260830191304 | 85 | 28 | 0.0 | 6.0 | 0.00 | 0.00 | 0.00 | 78 | 1008.3 |
| 20260830191233 | 85 | 28 | 0.0 | 6.0 | 0.00 | 0.00 | 0.00 | 78 | 1008.3 |
| 20260830191134 | 85 | 28 | 0.0 | 6.0 | 0.00 | 0.00 | 0.00 | 78 | 1008.3 |
| 20260830190832 | 85 | 28 | 0.0 | 7.0 | 0.00 | 0.00 | 0.00 | 78 | 1008.4 |
| 20260830190732 | 85 | 28 | 0.0 | 7.0 | 0.00 | 0.00 | 0.00 | 78 | 1008.4 |
| 20260830190705 | 85 | 28 | 0.0 | 7.0 | 0.00 | 0.00 | 0.00 | 78 | 1008.4 |
| 20260830190430 | 85 | 49 | 0.0 | 7.0 | 0.00 | 0.00 | 0.00 | 78 | 1008.5 |
| 20260830190231 | 85 | 223 | 0.0 | 7.0 | 0.00 | 0.00 | 0.00 | 78 | 1008.5 |
| 20260830190201 | 85 | 24 | 0.0 | 7.0 | 0.00 | 0.00 | 0.00 | 78 | 1008.5 |
| 20260830190031 | 85 | 18 | 0.0 | 9.0 | 0.00 | 0.00 | 0.00 | 77 | 1008.5 |
| 20260830190004 | 85 | 48 | 0.0 | 9.0 | 0.00 | 0.00 | 0.00 | 77 | 1008.6 |
| 20260830185957 | 85 | 48 | 0.0 | 9.0 | 0.00 | 0.00 | 0.00 | 77 | 1008.5 |
| 20260830185933 | 84 | 56 | 0.0 | 9.0 | 0.00 | 0.00 | 0.00 | 78 | 1008.6 |
| 20260830185421 | 84 | 27 | 0.0 | 9.0 | 0.00 | 0.00 | 0.00 | 78 | 1008.5 |
| 20260830185320 | 85 | 66 | 0.0 | 9.0 | 0.00 | 0.00 | 0.00 | 76 | 1008.4 |
| 20260830185152 | 85 | 41 | 0.0 | 9.0 | 0.00 | 0.00 | 0.00 | 76 | 1008.4 |
| 20260830185019 | 85 | 49 | 0.0 | 10.0 | 0.00 | 0.00 | 0.00 | 79 | 1008.4 |
| 20260830184944 | 85 | 56 | 0.0 | 10.0 | 0.00 | 0.00 | 0.00 | 79 | 1008.5 |
| 20260830184921 | 85 | 44 | 0.0 | 10.0 | 0.00 | 0.00 | 0.00 | 80 | 1008.5 |
| 20260830184620 | 85 | 38 | 0.0 | 10.0 | 0.00 | 0.00 | 0.00 | 78 | 1008.5 |
| 20260830184418 | 85 | 75 | 0.0 | 10.0 | 0.00 | 0.00 | 0.00 | 80 | 1008.6 |
| 20260830184316 | 84 | 0 | 0.0 | 10.0 | 0.00 | 0.00 | 0.00 | 79 | 1008.7 |
| 20260830184145 | 84 | 0 | 0.0 | 10.0 | 0.00 | 0.00 | 0.00 | 79 | 1008.7 |
| 20260830184027 | 84 | 44 | 0.0 | 10.0 | 0.00 | 0.00 | 0.00 | 79 | 1008.6 |
| 20260830184017 | 84 | 27 | 0.0 | 10.0 | 0.00 | 0.00 | 0.00 | 78 | 1008.6 |
| 20260830183945 | 84 | 32 | 0.0 | 10.0 | 0.00 | 0.00 | 0.00 | 77 | 1008.6 |
| 20260830183940 | 84 | 69 | 0.0 | 10.0 | 0.00 | 0.00 | 0.00 | 77 | 1008.7 |
| 20260830183420 | 84 | 42 | 0.0 | 10.0 | 0.00 | 0.00 | 0.00 | 80 | 1008.7 |
| 20260830183216 | 84 | 47 | 0.0 | 10.0 | 0.00 | 0.00 | 0.00 | 78 | 1008.8 |
| 20260830183145 | 84 | 44 | 0.0 | 10.0 | 0.00 | 0.00 | 0.00 | 79 | 1008.8 |
| 20260830183015 | 84 | 106 | 0.0 | 10.0 | 0.00 | 0.00 | 0.00 | 78 | 1008.9 |
| 20260830182816 | 84 | 99 | 0.0 | 9.0 | 0.00 | 0.00 | 0.00 | 79 | 1008.9 |
| 20260830182643 | 84 | 25 | 0.0 | 9.0 | 0.00 | 0.00 | 0.00 | 79 | 1008.9 |
| 20260830182616 | 84 | 27 | 0.0 | 9.0 | 0.00 | 0.00 | 0.00 | 80 | 1009.0 |
| 20260830182534 | 83 | 62 | 0.0 | 9.0 | 0.00 | 0.00 | 0.00 | 79 | 1009.0 |
| 20260830182505 | 84 | 48 | 0.0 | 7.0 | 0.00 | 0.00 | 0.00 | 78 | 1009.0 |
| 20260830182440 | 84 | 51 | 0.0 | 7.0 | 0.00 | 0.00 | 0.00 | 78 | 1009.0 |
| 20260830182010 | 84 | 39 | 0.0 | 7.0 | 0.00 | 0.00 | 0.00 | 79 | 1008.9 |
| 20260830181809 | 84 | 38 | 0.0 | 7.0 | 0.00 | 0.00 | 0.00 | 80 | 1008.9 |
| 20260830181645 | 83 | 32 | 0.0 | 7.0 | 0.00 | 0.00 | 0.00 | 80 | 1009.0 |
| 20260830181609 | 83 | 11 | 0.0 | 7.0 | 0.00 | 0.00 | 0.00 | 80 | 1009.0 |
| 20260830181441 | 82 | 39 | 0.0 | 9.0 | 0.00 | 0.00 | 0.00 | 80 | 1009.2 |
| 20260830181432 | 83 | 30 | 0.0 | 7.0 | 0.00 | 0.00 | 0.00 | 81 | 1009.0 |
| 20260830181400 | 82 | 24 | 0.0 | 9.0 | 0.00 | 0.00 | 0.00 | 81 | 1009.1 |
| 20260830181013 | 82 | 55 | 0.0 | 9.0 | 0.00 | 0.00 | 0.00 | 80 | 1009.2 |
| 20260830181008 | 82 | 68 | 0.0 | 9.0 | 0.00 | 0.00 | 0.00 | 81 | 1009.1 |
| 20260830180637 | 82 | 234 | 0.0 | 9.0 | 0.00 | 0.00 | 0.00 | 81 | 1009.2 |
| 20260830180607 | 82 | 16 | 0.0 | 9.0 | 0.00 | 0.00 | 0.00 | 80 | 1009.2 |
| 20260830180441 | 81 | 20 | 0.0 | 12.0 | 0.00 | 0.00 | 0.00 | 81 | 1009.1 |
| 20260830180432 | 82 | 56 | 0.0 | 9.0 | 0.00 | 0.00 | 0.00 | 82 | 1009.2 |
| 20260830180401 | 82 | 37 | 0.0 | 12.0 | 0.00 | 0.00 | 0.00 | 82 | 1009.2 |
| 20260830180004 | 81 | 56 | 0.0 | 12.0 | 0.00 | 0.00 | 0.00 | 82 | 1009.2 |
| 20260830175807 | 81 | 165 | 0.0 | 12.0 | 0.00 | 0.00 | 0.00 | 82 | 1009.1 |
| 20260830175638 | 81 | 49 | 0.0 | 12.0 | 0.00 | 0.00 | 0.00 | 81 | 1009.0 |
| 20260830175602 | 81 | 69 | 0.0 | 12.0 | 0.00 | 0.00 | 0.00 | 81 | 1009.0 |
| 20260830175524 | 81 | 59 | 0.0 | 12.0 | 0.00 | 0.00 | 0.00 | 81 | 1009.1 |
| 20260830175433 | 81 | 34 | 0.0 | 9.0 | 0.00 | 0.00 | 0.00 | 80 | 1009.1 |
| 20260830175354 | 81 | 140 | 0.0 | 9.0 | 0.00 | 0.00 | 0.00 | 81 | 1009.0 |
| 20260830174958 | 82 | 102 | 0.0 | 9.0 | 0.00 | 0.00 | 0.00 | 80 | 1009.0 |
| 20260830174851 | 82 | 58 | 0.0 | 7.0 | 0.00 | 0.00 | 0.00 | 81 | 1009.1 |
| 20260830174637 | 81 | 0 | 0.0 | 7.0 | 0.00 | 0.00 | 0.00 | 81 | 1009.2 |
| 20260830174555 | 82 | 0 | 0.0 | 7.0 | 0.00 | 0.00 | 0.00 | 81 | 1009.2 |
| 20260830174356 | 81 | 35 | 0.0 | 9.0 | 0.00 | 0.00 | 0.00 | 82 | 1009.2 |
| 20260830174154 | 82 | 1 | 0.0 | 9.0 | 0.00 | 0.00 | 0.00 | 81 | 1009.3 |
| 20260830174132 | 82 | 49 | 0.0 | 9.0 | 0.00 | 0.00 | 0.00 | 81 | 1009.3 |
| 20260830174051 | 82 | 34 | 0.0 | 9.0 | 0.00 | 0.00 | 0.00 | 81 | 1009.3 |
| 20260830173758 | 81 | 18 | 0.0 | 9.0 | 0.00 | 0.00 | 0.00 | 81 | 1009.4 |
| 20260830173632 | 82 | 35 | 0.0 | 10.0 | 0.00 | 0.00 | 0.00 | 81 | 1009.4 |
| 20260830173552 | 82 | 32 | 0.0 | 10.0 | 0.00 | 0.00 | 0.00 | 81 | 1009.4 |
| 20260830173454 | 82 | 13 | 0.0 | 10.0 | 0.00 | 0.00 | 0.00 | 81 | 1009.4 |
| 20260830173154 | 82 | 238 | 0.0 | 10.0 | 0.00 | 0.00 | 0.00 | 83 | 1009.4 |
| 20260830173133 | 82 | 110 | 0.0 | 10.0 | 0.00 | 0.00 | 0.00 | 83 | 1009.4 |
| 20260830172951 | 81 | 39 | 0.0 | 10.0 | 0.00 | 0.00 | 0.00 | 81 | 1009.4 |
| 20260830172752 | 82 | 183 | 0.0 | 10.0 | 0.00 | 0.00 | 0.00 | 81 | 1009.6 |
| 20260830172649 | 82 | 39 | 0.0 | 6.0 | 0.00 | 0.00 | 0.00 | 83 | 1009.7 |
| 20260830172633 | 82 | 49 | 0.0 | 6.0 | 0.00 | 0.00 | 0.00 | 82 | 1009.7 |
| 20260830172348 | 82 | 21 | 0.0 | 0.0 | 0.00 | 0.00 | 0.00 | 84 | 1009.8 |
| 20260830172147 | 81 | 7 | 0.0 | 0.0 | 0.00 | 0.00 | 0.00 | 84 | 1009.7 |
| 20260830172133 | 81 | 25 | 0.0 | 0.0 | 0.00 | 0.00 | 0.00 | 84 | 1009.7 |
| 20260830171952 | 81 | 0 | 0.0 | 0.0 | 0.00 | 0.00 | 0.00 | 85 | 1009.8 |
| 20260830171753 | 80 | 28 | 0.0 | 0.0 | 0.00 | 0.00 | 0.00 | 85 | 1009.7 |
| 20260830171632 | 80 | 28 | 0.0 | 0.0 | 0.00 | 0.00 | 0.00 | 85 | 1009.7 |
| 20260830171532 | 80 | 28 | 0.0 | 0.0 | 0.00 | 0.00 | 0.00 | 85 | 1009.8 |
| 20260830171330 | 79 | 24 | 0.0 | 0.0 | 0.00 | 0.00 | 0.00 | 86 | 1009.8 |
| 20260830171131 | 79 | 13 | 0.0 | 0.0 | 0.00 | 0.00 | 0.00 | 85 | 1009.9 |
| 20260830171121 | 79 | 49 | 0.0 | 0.0 | 0.00 | 0.00 | 0.00 | 85 | 1009.9 |
| 20260830170932 | 79 | 31 | 0.0 | 0.0 | 0.00 | 0.00 | 0.00 | 86 | 1009.9 |
| 20260830170835 | 79 | 30 | 0.0 | 0.0 | 0.00 | 0.00 | 0.00 | 87 | 1010.0 |
| 20260830170635 | 78 | 32 | 0.0 | 0.0 | 0.00 | 0.00 | 0.00 | 87 | 1009.9 |
| 20260830170622 | 78 | 34 | 0.0 | 0.0 | 0.00 | 0.00 | 0.00 | 86 | 1010.0 |
| 20260830170330 | 78 | 51 | 0.0 | 0.0 | 0.00 | 0.00 | 0.00 | 86 | 1009.9 |
| 20260830170122 | 78 | 14 | 0.0 | 0.0 | 0.00 | 0.00 | 0.00 | 87 | 1009.8 |
| 20260830165930 | 78 | 20 | 0.0 | 0.0 | 0.00 | 0.00 | 0.00 | 86 | 1009.9 |
| 20260830165730 | 78 | 49 | 0.0 | 0.0 | 0.00 | 0.00 | 0.00 | 86 | 1009.7 |
| 20260830165603 | 78 | 32 | 0.0 | 0.0 | 0.00 | 0.00 | 0.00 | 86 | 1009.8 |
| 20260830165530 | 78 | 10 | 0.0 | 0.0 | 0.00 | 0.00 | 0.00 | 86 | 1009.8 |
| 20260830165429 | 78 | 28 | 0.0 | 0.0 | 0.00 | 0.00 | 0.00 | 86 | 1009.7 |
| 20260830165228 | 78 | 48 | 0.0 | 0.0 | 0.00 | 0.00 | 0.00 | 86 | 1009.6 |
| 20260830165103 | 78 | 48 | 0.0 | 0.0 | 0.00 | 0.00 | 0.00 | 86 | 1009.6 |
| 20260830164908 | 78 | 25 | 0.0 | 0.0 | 0.00 | 0.00 | 0.00 | 86 | 1009.7 |
| 20260830164704 | 78 | 44 | 0.0 | 0.0 | 0.00 | 0.00 | 0.00 | 86 | 1009.7 |
| 20260830164603 | 78 | 54 | 0.0 | 0.0 | 0.00 | 0.00 | 0.00 | 86 | 1009.6 |
| 20260830164502 | 78 | 307 | 0.0 | 0.0 | 0.00 | 0.00 | 0.00 | 86 | 1009.6 |
| 20260830164302 | 78 | 306 | 0.0 | 0.0 | 0.00 | 0.00 | 0.00 | 86 | 1009.6 |
| 20260830164106 | 78 | 305 | 0.0 | 0.0 | 0.00 | 0.00 | 0.00 | 86 | 1009.6 |
| 20260830164056 | 78 | 305 | 0.0 | 0.0 | 0.00 | 0.00 | 0.00 | 86 | 1009.6 |
| 20260830163902 | 78 | 288 | 0.0 | 0.0 | 0.00 | 0.00 | 0.00 | 86 | 1009.7 |
| 20260830163702 | 78 | 23 | 0.0 | 0.0 | 0.00 | 0.00 | 0.00 | 85 | 1009.7 |
| 20260830163602 | 78 | 171 | 0.0 | 0.0 | 0.00 | 0.00 | 0.00 | 85 | 1009.8 |
| 20260830163553 | 78 | 157 | 0.0 | 0.0 | 0.00 | 0.00 | 0.00 | 85 | 1009.7 |
| 20260830163302 | 78 | 21 | 0.0 | 0.0 | 0.00 | 0.00 | 0.00 | 86 | 1009.8 |
| 20260830163104 | 78 | 32 | 0.0 | 0.0 | 0.00 | 0.00 | 0.00 | 86 | 1009.7 |
| 20260830163053 | 78 | 39 | 0.0 | 0.0 | 0.00 | 0.00 | 0.00 | 86 | 1009.7 |
| 20260830162901 | 78 | 35 | 0.0 | 0.0 | 0.00 | 0.00 | 0.00 | 86 | 1009.7 |
| 20260830162706 | 78 | 32 | 0.0 | 0.0 | 0.00 | 0.00 | 0.00 | 86 | 1009.6 |
| 20260830162602 | 78 | 28 | 0.0 | 0.0 | 0.00 | 0.00 | 0.00 | 85 | 1009.5 |
| 20260830162554 | 78 | 31 | 0.0 | 0.0 | 0.00 | 0.00 | 0.00 | 85 | 1009.6 |
| 20260830162346 | 78 | 0 | 0.0 | 0.0 | 0.00 | 0.00 | 0.00 | 85 | 1009.5 |
| 20260830162334 | 78 | 7 | 0.0 | 0.0 | 0.00 | 0.00 | 0.00 | 85 | 1009.6 |
| 20260830161900 | 78 | 202 | 0.0 | 0.0 | 0.00 | 0.00 | 0.00 | 85 | 1009.5 |
| 20260830161659 | 78 | 28 | 0.0 | 0.0 | 0.00 | 0.00 | 0.00 | 84 | 1009.4 |
| 20260830161549 | 78 | 41 | 0.0 | 0.0 | 0.00 | 0.00 | 0.00 | 84 | 1009.3 |
| 20260830161459 | 78 | 34 | 0.0 | 0.0 | 0.00 | 0.00 | 0.00 | 84 | 1009.3 |
| 20260830161408 | 79 | 52 | 0.0 | 0.0 | 0.00 | 0.00 | 0.00 | 83 | 1009.1 |
| 20260830161345 | 79 | 55 | 0.0 | 0.0 | 0.00 | 0.00 | 0.00 | 83 | 1009.1 |
| 20260830161334 | 78 | 0 | 0.0 | 0.0 | 0.00 | 0.00 | 0.00 | 84 | 1009.2 |
| 20260830160858 | 79 | 37 | 0.0 | 0.0 | 0.00 | 0.00 | 0.00 | 83 | 1009.1 |
| 20260830160754 | 79 | 58 | 0.0 | 0.0 | 0.00 | 0.00 | 0.00 | 83 | 1009.0 |
| 20260830160548 | 79 | 128 | 0.0 | 0.0 | 0.00 | 0.00 | 0.00 | 82 | 1009.0 |
| 20260830160454 | 79 | 14 | 0.0 | 0.0 | 0.00 | 0.00 | 0.00 | 83 | 1009.0 |
| 20260830160408 | 80 | 25 | 0.0 | 0.0 | 0.00 | 0.00 | 0.00 | 81 | 1008.9 |
| 20260830160348 | 80 | 32 | 0.0 | 0.0 | 0.00 | 0.00 | 0.00 | 82 | 1009.0 |
| 20260830160319 | 80 | 1 | 0.0 | 0.0 | 0.00 | 0.00 | 0.00 | 81 | 1008.9 |
| 20260830155854 | 81 | 35 | 0.0 | 0.0 | 0.00 | 0.00 | 0.00 | 83 | 1008.9 |
| 20260830155655 | 81 | 6 | 0.0 | 0.0 | 0.00 | 0.00 | 0.00 | 83 | 1008.9 |
| 20260830155548 | 81 | 28 | 0.0 | 0.0 | 0.00 | 0.00 | 0.00 | 84 | 1008.9 |
| 20260830155448 | 80 | 47 | 0.0 | 0.0 | 0.00 | 0.00 | 0.00 | 83 | 1008.9 |
| 20260830155247 | 80 | 0 | 0.0 | 0.0 | 0.00 | 0.00 | 0.00 | 83 | 1008.9 |
| 20260830155053 | 80 | 47 | 0.0 | 0.0 | 0.00 | 0.00 | 0.00 | 85 | 1008.9 |
| 20260830155048 | 80 | 52 | 0.0 | 0.0 | 0.00 | 0.00 | 0.00 | 85 | 1008.9 |
| 20260830154846 | 79 | 44 | 0.0 | 0.0 | 0.00 | 0.00 | 0.00 | 86 | 1009.0 |
| 20260830154701 | 78 | 42 | 0.0 | 0.0 | 0.00 | 0.00 | 0.00 | 86 | 1009.0 |
| 20260830154646 | 79 | 68 | 0.0 | 0.0 | 0.00 | 0.00 | 0.00 | 86 | 1009.1 |
| 20260830154550 | 78 | 45 | 0.0 | 0.0 | 0.00 | 0.00 | 0.00 | 86 | 1009.1 |
| 20260830154246 | 78 | 1 | 0.0 | 0.0 | 0.00 | 0.00 | 0.00 | 85 | 1009.0 |
| 20260830154049 | 78 | 82 | 0.0 | 0.0 | 0.00 | 0.00 | 0.00 | 86 | 1008.9 |
| 20260830153852 | 78 | 75 | 0.0 | 0.0 | 0.00 | 0.00 | 0.00 | 87 | 1008.8 |
| 20260830153845 | 78 | 13 | 0.0 | 0.0 | 0.00 | 0.00 | 0.00 | 86 | 1008.8 |
| 20260830153819 | 78 | 21 | 0.0 | 0.0 | 0.00 | 0.00 | 0.00 | 86 | 1008.8 |
| 20260830153447 | 78 | 41 | 0.0 | 0.0 | 0.00 | 0.00 | 0.00 | 86 | 1008.8 |
| 20260830153252 | 77 | 38 | 0.0 | 0.0 | 0.00 | 0.00 | 0.00 | 86 | 1008.7 |
| 20260830153247 | 78 | 62 | 0.0 | 0.0 | 0.00 | 0.00 | 0.00 | 86 | 1008.7 |
| 20260830153049 | 77 | 38 | 0.0 | 0.0 | 0.00 | 0.00 | 0.00 | 86 | 1008.7 |
| 20260830152849 | 78 | 35 | 0.0 | 0.0 | 0.00 | 0.00 | 0.00 | 87 | 1008.7 |
| 20260830152841 | 77 | 49 | 0.0 | 0.0 | 0.00 | 0.00 | 0.00 | 87 | 1008.8 |
| 20260830152818 | 78 | 0 | 0.0 | 0.0 | 0.00 | 0.00 | 0.00 | 87 | 1008.8 |
| 20260830152448 | 77 | 65 | 0.0 | 0.0 | 0.00 | 0.00 | 0.00 | 87 | 1008.8 |
| 20260830152247 | 77 | 42 | 0.0 | 0.0 | 0.00 | 0.00 | 0.00 | 87 | 1008.8 |
| 20260830152049 | 77 | 25 | 0.0 | 0.0 | 0.00 | 0.00 | 0.00 | 87 | 1008.8 |
| 20260830151916 | 77 | 16 | 0.0 | 0.0 | 0.00 | 0.00 | 0.00 | 89 | 1008.8 |
| 20260830151848 | 77 | 27 | 0.0 | 0.0 | 0.00 | 0.00 | 0.00 | 88 | 1008.7 |
| 20260830151836 | 77 | 45 | 0.0 | 0.0 | 0.00 | 0.00 | 0.00 | 89 | 1008.7 |
| 20260830151448 | 76 | 39 | 0.0 | 0.0 | 0.00 | 0.00 | 0.00 | 89 | 1008.7 |
| 20260830151347 | 76 | 41 | 0.0 | 0.0 | 0.00 | 0.00 | 0.00 | 89 | 1008.7 |
| 20260830151049 | 76 | 16 | 0.0 | 0.0 | 0.00 | 0.00 | 0.00 | 89 | 1008.7 |
| 20260830150847 | 76 | 73 | 0.0 | 0.0 | 0.00 | 0.00 | 0.00 | 89 | 1008.8 |
| 20260830150647 | 76 | 25 | 0.0 | 0.0 | 0.00 | 0.00 | 0.00 | 89 | 1008.8 |
| 20260830150557 | 76 | 35 | 0.0 | 0.0 | 0.00 | 0.00 | 0.00 | 90 | 1008.7 |
| 20260830150547 | 76 | 6 | 0.0 | 0.0 | 0.00 | 0.00 | 0.00 | 90 | 1008.8 |
| 20260830150247 | 76 | 25 | 0.0 | 0.0 | 0.00 | 0.00 | 0.00 | 90 | 1009.0 |
| 20260830150101 | 76 | 6 | 0.0 | 0.0 | 0.00 | 0.00 | 0.00 | 90 | 1009.0 |
| 20260830145950 | 76 | 358 | 0.0 | 0.0 | 0.00 | 0.00 | 0.00 | 91 | 1009.1 |
| 20260830145647 | 75 | 142 | 0.0 | 0.0 | 0.00 | 0.00 | 0.00 | 91 | 1009.1 |
| 20260830145548 | 75 | 161 | 0.0 | 0.0 | 0.00 | 0.00 | 0.00 | 91 | 1009.0 |
| 20260830145447 | 75 | 216 | 0.0 | 0.0 | 0.00 | 0.00 | 0.00 | 93 | 1009.0 |
| 20260830145247 | 75 | 13 | 0.0 | 0.0 | 0.00 | 0.00 | 0.00 | 94 | 1009.1 |
| 20260830145156 | 74 | 69 | 0.0 | 0.0 | 0.00 | 0.00 | 0.00 | 94 | 1008.9 |
| 20260830145050 | 74 | 69 | 0.0 | 0.0 | 0.00 | 0.00 | 0.00 | 94 | 1008.9 |
| 20260830144847 | 74 | 41 | 0.0 | 0.0 | 0.00 | 0.00 | 0.00 | 95 | 1009.0 |
| 20260830144647 | 74 | 30 | 0.0 | 0.0 | 0.00 | 0.00 | 0.00 | 95 | 1009.0 |
| 20260830144556 | 74 | 30 | 0.0 | 0.0 | 0.00 | 0.00 | 0.00 | 95 | 1009.0 |
| 20260830144547 | 74 | 30 | 0.0 | 0.0 | 0.00 | 0.00 | 0.00 | 95 | 1009.0 |
| 20260830144248 | 73 | 41 | 0.0 | 0.0 | 0.00 | 0.00 | 0.00 | 95 | 1009.0 |
| 20260830144048 | 73 | 41 | 0.0 | 0.0 | 0.00 | 0.00 | 0.00 | 96 | 1009.0 |
| 20260830143848 | 73 | 44 | 0.0 | 0.0 | 0.00 | 0.00 | 0.00 | 96 | 1009.1 |
| 20260830143750 | 72 | 38 | 0.0 | 0.0 | 0.00 | 0.00 | 0.00 | 96 | 1009.2 |
| 20260830143544 | 72 | 35 | 0.0 | 0.0 | 0.00 | 0.00 | 0.00 | 96 | 1009.2 |
| 20260830143449 | 72 | 35 | 0.0 | 0.0 | 0.00 | 0.00 | 0.00 | 96 | 1009.2 |
| 20260830143247 | 72 | 35 | 0.0 | 0.0 | 0.00 | 0.00 | 0.00 | 96 | 1009.0 |
| 20260830143039 | 72 | 35 | 0.0 | 0.0 | 0.00 | 0.00 | 0.00 | 96 | 1008.9 |
| 20260830142847 | 72 | 34 | 0.0 | 0.0 | 0.00 | 0.00 | 0.00 | 96 | 1008.8 |
| 20260830142747 | 72 | 56 | 0.0 | 0.0 | 0.00 | 0.00 | 0.00 | 96 | 1008.9 |
| 20260830142538 | 72 | 45 | 0.0 | 0.0 | 0.00 | 0.00 | 0.00 | 96 | 1008.9 |
| 20260830142449 | 71 | 55 | 0.0 | 0.0 | 0.00 | 0.00 | 0.00 | 96 | 1008.9 |
| 20260830142424 | 71 | 55 | 0.0 | 2.0 | 0.00 | 0.00 | 0.00 | 96 | 1008.8 |
| 20260830142330 | 71 | 48 | 0.0 | 3.0 | 0.00 | 0.00 | 0.00 | 96 | 1008.9 |
| 20260830142305 | 71 | 49 | 0.0 | 3.0 | 0.00 | 0.00 | 0.00 | 96 | 1008.9 |
| 20260830141847 | 71 | 48 | 0.0 | 5.0 | 0.00 | 0.00 | 0.00 | 96 | 1009.0 |
| 20260830141649 | 71 | 49 | 0.0 | 5.0 | 0.00 | 0.00 | 0.00 | 96 | 1009.1 |
| 20260830141535 | 71 | 42 | 0.0 | 5.0 | 0.00 | 0.00 | 0.00 | 96 | 1009.1 |
| 20260830141447 | 71 | 38 | 0.0 | 5.0 | 0.00 | 0.00 | 0.00 | 96 | 1009.1 |
| 20260830141431 | 71 | 39 | 0.0 | 5.0 | 0.00 | 0.00 | 0.00 | 96 | 1009.2 |
| 20260830141336 | 71 | 8 | 0.0 | 6.0 | 0.00 | 0.00 | 0.00 | 96 | 1009.1 |
| 20260830141300 | 71 | 41 | 0.0 | 6.0 | 0.00 | 0.00 | 0.00 | 96 | 1009.2 |
| 20260830140945 | 71 | 30 | 0.0 | 6.0 | 0.00 | 0.00 | 0.00 | 96 | 1009.2 |
| 20260830140648 | 71 | 30 | 0.0 | 6.0 | 0.00 | 0.00 | 0.00 | 96 | 1009.2 |
| 20260830140534 | 71 | 30 | 0.0 | 6.0 | 0.00 | 0.00 | 0.00 | 96 | 1009.2 |
| 20260830140438 | 71 | 56 | 0.0 | 6.0 | 0.00 | 0.00 | 0.00 | 96 | 1009.2 |
| 20260830140335 | 71 | 51 | 0.0 | 4.0 | 0.00 | 0.00 | 0.00 | 96 | 1009.4 |
| 20260830140321 | 71 | 45 | 0.0 | 4.0 | 0.00 | 0.00 | 0.00 | 96 | 1009.3 |
| 20260830140255 | 71 | 47 | 0.0 | 4.0 | 0.00 | 0.00 | 0.00 | 96 | 1009.4 |
| 20260830135939 | 71 | 56 | 0.0 | 4.0 | 0.00 | 0.00 | 0.00 | 96 | 1009.3 |
| 20260830135638 | 71 | 56 | 0.0 | 4.0 | 0.00 | 0.00 | 0.00 | 97 | 1009.3 |
| 20260830135537 | 71 | 54 | 0.0 | 3.0 | 0.00 | 0.00 | 0.00 | 97 | 1009.3 |
| 20260830135431 | 71 | 44 | 0.0 | 3.0 | 0.00 | 0.00 | 0.00 | 97 | 1009.3 |
| 20260830135341 | 71 | 42 | 0.0 | 3.0 | 0.00 | 0.00 | 0.00 | 97 | 1009.3 |
| 20260830135318 | 71 | 44 | 0.0 | 3.0 | 0.00 | 0.00 | 0.00 | 97 | 1009.3 |
| 20260830135250 | 71 | 42 | 0.0 | 3.0 | 0.00 | 0.00 | 0.00 | 97 | 1009.3 |
| 20260830134708 | 0 | 0.0 | 0.0 | 0.00 | 0.00 | 0.00 | |||
| 20260830134632 | 0 | 0.0 | 0.0 | 0.00 | 0.00 | 0.00 | |||
| 20260830134532 | 0 | 0.0 | 0.0 | 0.00 | 0.00 | 0.00 | |||
| 20260830134344 | 0 | 0.0 | 0.0 | 0.00 | 0.00 | 0.00 | |||
| 20260830134339 | 0 | 0.0 | 0.0 | 0.00 | 0.00 | 0.00 | |||
| 20260830134327 | 0 | 0.0 | 0.0 | 0.00 | 0.00 | 0.00 | |||
| 20260830133834 | 0 | 0.0 | 0.0 | 0.00 | 0.00 | 0.00 | |||
| 20260830133610 | 0 | 0.0 | 0.0 | 0.00 | 0.00 | 0.00 | 1009.5 | ||
| 20260830133407 | 0 | 0.0 | 0.0 | 0.00 | 0.00 | 0.00 | 1009.5 | ||
| 20260830133348 | 70 | 41 | 0.0 | 0.0 | 0.00 | 0.00 | 0.00 | 97 | 1009.5 |
| 20260830133343 | 70 | 41 | 0.0 | 0.0 | 0.00 | 0.00 | 0.00 | 97 | 1009.5 |
| 20260830133329 | 70 | 41 | 0.0 | 0.0 | 0.00 | 0.00 | 0.00 | 97 | 1009.5 |
| 20260830132801 | 70 | 41 | 0.0 | 0.0 | 0.00 | 0.00 | 0.00 | 97 | 1009.5 |
| 20260830132706 | 70 | 41 | 0.0 | 0.0 | 0.00 | 0.00 | 0.00 | 97 | 1009.5 |
| 20260830132601 | 70 | 41 | 0.0 | 0.0 | 0.00 | 0.00 | 0.00 | 97 | 1009.5 |
| 20260830132401 | 70 | 41 | 0.0 | 0.0 | 0.00 | 0.00 | 0.00 | 97 | 1009.4 |
| 20260830132346 | 70 | 38 | 0.0 | 0.0 | 0.00 | 0.00 | 0.00 | 97 | 1009.3 |
| 20260830132326 | 70 | 41 | 0.0 | 0.0 | 0.00 | 0.00 | 0.00 | 97 | 1009.3 |
| 20260830132001 | 70 | 39 | 0.0 | 0.0 | 0.00 | 0.00 | 0.00 | 97 | 1009.4 |
| 20260830131759 | 70 | 41 | 0.0 | 0.0 | 0.00 | 0.00 | 0.00 | 97 | 1009.2 |
| 20260830131559 | 69 | 41 | 0.0 | 0.0 | 0.00 | 0.00 | 0.00 | 97 | 1009.2 |
| 20260830131359 | 69 | 39 | 0.0 | 0.0 | 0.00 | 0.00 | 0.00 | 97 | 1009.1 |
| 20260830131345 | 69 | 38 | 0.0 | 0.0 | 0.00 | 0.00 | 0.00 | 97 | 1009.1 |
| 20260830131325 | 69 | 38 | 0.0 | 0.0 | 0.00 | 0.00 | 0.00 | 97 | 1009.1 |
| 20260830131004 | 69 | 47 | 0.0 | 0.0 | 0.00 | 0.00 | 0.00 | 97 | 1009.1 |
| 20260830130902 | 69 | 49 | 0.0 | 0.0 | 0.00 | 0.00 | 0.00 | 97 | 1009.1 |
| 20260830130602 | 69 | 62 | 0.0 | 0.0 | 0.00 | 0.00 | 0.00 | 97 | 1009.1 |
| 20260830130506 | 69 | 39 | 0.0 | 0.0 | 0.00 | 0.00 | 0.00 | 97 | 1009.0 |
| 20260830130349 | 69 | 42 | 0.0 | 0.0 | 0.00 | 0.00 | 0.00 | 97 | 1009.1 |
| 20260830130325 | 69 | 45 | 0.0 | 0.0 | 0.00 | 0.00 | 0.00 | 97 | 1009.0 |
| 20260830130005 | 69 | 31 | 0.0 | 0.0 | 0.00 | 0.00 | 0.00 | 97 | 1009.1 |
| 20260830125801 | 69 | 28 | 0.0 | 0.0 | 0.00 | 0.00 | 0.00 | 97 | 1009.1 |
| 20260830125604 | 69 | 28 | 0.0 | 0.0 | 0.00 | 0.00 | 0.00 | 97 | 1009.2 |
| 20260830125505 | 69 | 30 | 0.0 | 0.0 | 0.00 | 0.00 | 0.00 | 97 | 1009.2 |
| 20260830125350 | 69 | 37 | 0.0 | 0.0 | 0.00 | 0.00 | 0.00 | 97 | 1009.1 |
| 20260830125345 | 69 | 38 | 0.0 | 0.0 | 0.00 | 0.00 | 0.00 | 97 | 1009.0 |
| 20260830125325 | 69 | 38 | 0.0 | 0.0 | 0.00 | 0.00 | 0.00 | 97 | 1009.1 |
| 20260830124802 | 69 | 38 | 0.0 | 0.0 | 0.00 | 0.00 | 0.00 | 97 | 1009.0 |
| 20260830124602 | 69 | 38 | 0.0 | 0.0 | 0.00 | 0.00 | 0.00 | 97 | 1009.1 |
| 20260830124403 | 69 | 37 | 0.0 | 0.0 | 0.00 | 0.00 | 0.00 | 97 | 1009.0 |
| 20260830124349 | 69 | 35 | 0.0 | 0.0 | 0.00 | 0.00 | 0.00 | 97 | 1009.0 |
| 20260830124344 | 69 | 34 | 0.0 | 0.0 | 0.00 | 0.00 | 0.00 | 97 | 1009.0 |
| 20260830124325 | 69 | 31 | 0.0 | 0.0 | 0.00 | 0.00 | 0.00 | 97 | 1009.0 |
| 20260830123803 | 69 | 23 | 0.0 | 0.0 | 0.00 | 0.00 | 0.00 | 97 | 1008.9 |
| 20260830123705 | 69 | 44 | 0.0 | 0.0 | 0.00 | 0.00 | 0.00 | 97 | 1008.8 |
| 20260830123602 | 69 | 44 | 0.0 | 0.0 | 0.00 | 0.00 | 0.00 | 97 | 1008.8 |
| 20260830123402 | 68 | 48 | 0.0 | 0.0 | 0.00 | 0.00 | 0.00 | 97 | 1008.8 |
| 20260830123351 | 68 | 49 | 0.0 | 2.0 | 0.00 | 0.00 | 0.00 | 97 | 1008.8 |
| 20260830123326 | 68 | 48 | 0.0 | 2.0 | 0.00 | 0.00 | 0.00 | 97 | 1008.9 |
| 20260830123004 | 68 | 48 | 0.0 | 2.0 | 0.00 | 0.00 | 0.00 | 97 | 1008.7 |
| 20260830122802 | 68 | 38 | 0.0 | 2.0 | 0.00 | 0.00 | 0.00 | 97 | 1008.8 |
| 20260830122705 | 68 | 39 | 0.0 | 2.0 | 0.00 | 0.00 | 0.00 | 97 | 1008.9 |
| 20260830122602 | 68 | 39 | 0.0 | 2.0 | 0.00 | 0.00 | 0.00 | 97 | 1008.9 |
| 20260830122402 | 68 | 38 | 0.0 | 2.0 | 0.00 | 0.00 | 0.00 | 97 | 1009.0 |
| 20260830122351 | 68 | 38 | 0.0 | 2.0 | 0.00 | 0.00 | 0.00 | 97 | 1009.1 |
| 20260830122327 | 68 | 38 | 0.0 | 2.0 | 0.00 | 0.00 | 0.00 | 97 | 1009.1 |
| 20260830122005 | 68 | 38 | 0.0 | 1.0 | 0.00 | 0.00 | 0.00 | 97 | 1009.1 |
| 20260830121904 | 68 | 37 | 0.0 | 1.0 | 0.00 | 0.00 | 0.00 | 97 | 1009.0 |
| 20260830121602 | 68 | 38 | 0.0 | 1.0 | 0.00 | 0.00 | 0.00 | 97 | 1009.0 |
| 20260830121426 | 68 | 38 | 0.0 | 2.0 | 0.00 | 0.00 | 0.00 | 96 | 1009.0 |
| 20260830121404 | 68 | 38 | 0.0 | 2.0 | 0.00 | 0.00 | 0.00 | 97 | 1008.9 |
| 20260830121343 | 68 | 39 | 0.0 | 2.0 | 0.00 | 0.00 | 0.00 | 97 | 1009.0 |
| 20260830121003 | 68 | 38 | 0.0 | 2.0 | 0.00 | 0.00 | 0.00 | 96 | 1008.9 |
| 20260830120802 | 68 | 38 | 0.0 | 3.0 | 0.00 | 0.00 | 0.00 | 97 | 1008.9 |
| 20260830120602 | 68 | 39 | 0.0 | 3.0 | 0.00 | 0.00 | 0.00 | 96 | 1008.8 |
| 20260830120507 | 68 | 38 | 0.0 | 3.0 | 0.00 | 0.00 | 0.00 | 96 | 1008.7 |
| 20260830120350 | 68 | 37 | 0.0 | 3.0 | 0.00 | 0.00 | 0.00 | 97 | 1008.7 |
| 20260830120327 | 68 | 38 | 0.0 | 3.0 | 0.00 | 0.00 | 0.00 | 97 | 1008.8 |
| 20260830120004 | 68 | 38 | 0.0 | 3.0 | 0.00 | 0.00 | 0.00 | 97 | 1008.8 |
| 20260830115905 | 68 | 34 | 0.0 | 3.0 | 0.00 | 0.00 | 0.00 | 97 | 1008.9 |
| 20260830115604 | 68 | 30 | 0.0 | 3.0 | 0.00 | 0.00 | 0.00 | 97 | 1008.8 |
| 20260830115401 | 68 | 23 | 0.0 | 2.0 | 0.00 | 0.00 | 0.00 | 97 | 1008.8 |
| 20260830115350 | 68 | 31 | 0.0 | 3.0 | 0.00 | 0.00 | 0.00 | 96 | 1008.7 |
| 20260830115327 | 68 | 31 | 0.0 | 3.0 | 0.00 | 0.00 | 0.00 | 96 | 1008.6 |
| 20260830115004 | 68 | 31 | 0.0 | 3.0 | 0.00 | 0.00 | 0.00 | 96 | 1008.7 |
| 20260830114801 | 68 | 31 | 0.0 | 3.0 | 0.00 | 0.00 | 0.00 | 96 | 1008.8 |
| 20260830114601 | 68 | 31 | 0.0 | 3.0 | 0.00 | 0.00 | 0.00 | 96 | 1008.8 |
| 20260830114424 | 67 | 27 | 0.0 | 1.0 | 0.00 | 0.00 | 0.00 | 96 | 1008.8 |
| 20260830114402 | 67 | 28 | 0.0 | 3.0 | 0.00 | 0.00 | 0.00 | 96 | 1008.8 |
| 20260830114343 | 67 | 27 | 0.0 | 1.0 | 0.00 | 0.00 | 0.00 | 96 | 1008.9 |
| 20260830114004 | 67 | 28 | 0.0 | 1.0 | 0.00 | 0.01 | 0.00 | 96 | 1008.9 |
| 20260830113856 | 67 | 28 | 0.0 | 0.0 | 0.00 | 0.01 | 0.00 | 96 | 1008.9 |
| 20260830113602 | 67 | 28 | 0.0 | 0.0 | 0.00 | 0.01 | 0.00 | 96 | 1009.0 |
| 20260830113402 | 67 | 28 | 0.0 | 1.0 | 0.00 | 0.02 | 0.00 | 96 | 1009.0 |
| 20260830113203 | 67 | 27 | 0.0 | 2.0 | 0.00 | 0.03 | 0.00 | 96 | 1008.8 |
| 20260830113100 | 67 | 28 | 0.0 | 2.0 | 0.00 | 0.03 | 0.00 | 96 | 1008.7 |
| 20260830113005 | 67 | 28 | 0.0 | 2.0 | 0.00 | 0.04 | 0.00 | 96 | 1008.7 |
| 20260830112902 | 67 | 28 | 0.0 | 2.0 | 0.00 | 0.04 | 0.00 | 96 | 1008.7 |
| 20260830112602 | 67 | 27 | 0.0 | 2.0 | 0.00 | 0.05 | 0.00 | 96 | 1008.7 |
| 20260830112506 | 67 | 27 | 0.0 | 2.0 | 0.00 | 0.06 | 0.00 | 96 | 1008.7 |
| 20260830112204 | 67 | 28 | 0.0 | 1.0 | 0.00 | 0.06 | 0.00 | 96 | 1008.7 |
| 20260830112102 | 67 | 28 | 0.0 | 1.0 | 0.00 | 0.06 | 0.00 | 96 | 1008.7 |
| 20260830112003 | 67 | 27 | 0.0 | 1.0 | 0.00 | 0.06 | 0.00 | 96 | 1008.7 |
| 20260830111802 | 67 | 28 | 0.0 | 0.0 | 0.00 | 0.07 | 0.00 | 96 | 1008.8 |
| 20260830111602 | 67 | 28 | 0.0 | 0.0 | 0.00 | 0.07 | 0.00 | 96 | 1008.8 |
| 20260830111507 | 67 | 27 | 0.0 | 0.0 | 0.00 | 0.08 | 0.00 | 96 | 1008.9 |
| 20260830111203 | 67 | 30 | 0.0 | 0.0 | 0.00 | 0.08 | 0.00 | 96 | 1008.9 |
| 20260830111100 | 67 | 28 | 0.0 | 0.0 | 0.00 | 0.08 | 0.00 | 96 | 1008.9 |
| 20260830111005 | 67 | 28 | 0.0 | 0.0 | 0.00 | 0.08 | 0.00 | 96 | 1008.9 |
| 20260830110802 | 67 | 28 | 0.0 | 0.0 | 0.00 | 0.08 | 0.00 | 96 | 1008.9 |
| 20260830110602 | 67 | 28 | 0.0 | 0.0 | 0.00 | 0.09 | 0.00 | 96 | 1008.9 |
| 20260830110402 | 67 | 28 | 0.0 | 0.0 | 0.00 | 0.09 | 0.00 | 96 | 1008.9 |
| 20260830110302 | 67 | 28 | 0.0 | 0.0 | 0.00 | 0.09 | 0.00 | 96 | 1008.8 |
| 20260830110118 | 67 | 28 | 0.0 | 0.0 | 0.00 | 0.10 | 0.00 | 96 | 1008.7 |
| 20260830110101 | 67 | 28 | 0.0 | 0.0 | 0.00 | 0.10 | 0.00 | 96 | 1008.7 |
| 20260830105802 | 67 | 28 | 0.0 | 2.0 | 0.00 | 0.11 | 0.00 | 96 | 1008.8 |
| 20260830105601 | 67 | 28 | 0.0 | 2.0 | 0.00 | 0.11 | 0.00 | 96 | 1008.9 |
| 20260830105402 | 67 | 27 | 0.0 | 2.0 | 0.00 | 0.12 | 0.00 | 95 | 1009.0 |
| 20260830105203 | 68 | 28 | 0.0 | 2.0 | 0.00 | 0.13 | 0.00 | 96 | 1009.0 |
| 20260830105101 | 68 | 28 | 0.0 | 2.0 | 0.00 | 0.13 | 0.00 | 96 | 1008.9 |
| 20260830105003 | 68 | 28 | 0.0 | 2.0 | 0.00 | 0.13 | 0.00 | 96 | 1008.9 |
| 20260830104902 | 68 | 28 | 0.0 | 2.0 | 0.00 | 0.13 | 0.00 | 96 | 1008.9 |
| 20260830104702 | 68 | 27 | 0.0 | 2.0 | 0.00 | 0.14 | 0.00 | 96 | 1008.9 |
| 20260830104601 | 68 | 27 | 0.0 | 2.0 | 0.00 | 0.14 | 0.00 | 96 | 1008.9 |
| 20260830104402 | 68 | 28 | 0.0 | 2.0 | 0.00 | 0.14 | 0.00 | 96 | 1008.9 |
| 20260830104203 | 68 | 27 | 0.0 | 2.0 | 0.00 | 0.14 | 0.00 | 96 | 1008.9 |
| 20260830104101 | 68 | 27 | 0.0 | 2.0 | 0.00 | 0.14 | 0.00 | 96 | 1009.0 |
| 20260830104004 | 68 | 28 | 0.0 | 3.0 | 0.00 | 0.14 | 0.00 | 96 | 1009.0 |
| 20260830103804 | 67 | 28 | 0.0 | 3.0 | 0.00 | 0.15 | 0.00 | 95 | 1009.0 |
| 20260830103602 | 67 | 27 | 0.0 | 3.0 | 0.00 | 0.15 | 0.00 | 95 | 1008.9 |
| 20260830103504 | 67 | 42 | 0.0 | 3.0 | 0.00 | 0.15 | 0.00 | 95 | 1008.9 |
| 20260830103305 | 67 | 42 | 0.0 | 3.0 | 0.00 | 0.16 | 0.00 | 95 | 1009.0 |
| 20260830103100 | 67 | 41 | 0.0 | 3.0 | 0.00 | 0.16 | 0.00 | 95 | 1008.9 |
| 20260830103004 | 67 | 38 | 0.0 | 2.0 | 0.00 | 0.16 | 0.00 | 95 | 1009.0 |
| 20260830102803 | 67 | 41 | 0.0 | 0.0 | 0.00 | 0.17 | 0.00 | 95 | 1009.0 |
| 20260830102601 | 67 | 41 | 0.0 | 0.0 | 0.00 | 0.17 | 0.00 | 95 | 1009.0 |
| 20260830102402 | 67 | 42 | 0.0 | 0.0 | 0.00 | 0.17 | 0.00 | 95 | 1009.1 |
| 20260830102205 | 67 | 41 | 0.0 | 0.0 | 0.00 | 0.18 | 0.00 | 95 | 1009.1 |
| 20260830102106 | 68 | 41 | 0.0 | 1.0 | 0.00 | 0.19 | 0.00 | 95 | 1009.1 |
| 20260830102101 | 67 | 39 | 0.0 | 0.0 | 0.00 | 0.18 | 0.00 | 95 | 1009.1 |
| 20260830101801 | 68 | 41 | 0.0 | 1.0 | 0.00 | 0.19 | 0.00 | 95 | 1009.1 |
| 20260830101708 | 68 | 41 | 0.0 | 1.0 | 0.00 | 0.20 | 0.00 | 95 | 1009.2 |
| 20260830101601 | 68 | 41 | 0.0 | 1.0 | 0.00 | 0.20 | 0.00 | 95 | 1009.2 |
| 20260830101406 | 68 | 41 | 0.0 | 1.0 | 0.00 | 0.20 | 0.00 | 95 | 1009.1 |
| 20260830101203 | 68 | 39 | 0.0 | 1.0 | 0.00 | 0.21 | 0.00 | 95 | 1009.1 |
| 20260830101100 | 68 | 42 | 0.0 | 1.0 | 0.00 | 0.22 | 0.00 | 95 | 1009.1 |
| 20260830101003 | 68 | 39 | 0.0 | 0.0 | 0.00 | 0.22 | 0.00 | 95 | 1009.2 |
| 20260830100801 | 68 | 42 | 0.0 | 0.0 | 0.00 | 0.22 | 0.00 | 95 | 1009.1 |
| 20260830100705 | 68 | 41 | 0.0 | 0.0 | 0.00 | 0.23 | 0.00 | 95 | 1009.1 |
| 20260830100602 | 68 | 41 | 0.0 | 0.0 | 0.00 | 0.23 | 0.00 | 95 | 1009.1 |
| 20260830100402 | 68 | 39 | 0.0 | 0.0 | 0.00 | 0.23 | 0.00 | 95 | 1009.2 |
| 20260830100306 | 68 | 41 | 0.0 | 0.0 | 0.00 | 0.24 | 0.00 | 95 | 1009.1 |
| 20260830100005 | 68 | 39 | 0.0 | 0.0 | 0.00 | 0.25 | 0.00 | 95 | 1009.1 |
| 20260830095802 | 68 | 41 | 0.0 | 0.0 | 0.00 | 0.25 | 0.00 | 95 | 1009.1 |
| 20260830095601 | 68 | 41 | 0.0 | 1.0 | 0.00 | 0.26 | 0.00 | 95 | 1009.1 |
| 20260830095404 | 68 | 39 | 0.0 | 1.0 | 0.00 | 0.26 | 0.00 | 95 | 1009.1 |
| 20260830095305 | 68 | 39 | 0.0 | 1.0 | 0.00 | 0.26 | 0.00 | 95 | 1009.1 |
| 20260830095101 | 68 | 41 | 0.0 | 1.0 | 0.00 | 0.27 | 0.00 | 95 | 1009.1 |
| 20260830095001 | 68 | 41 | 0.0 | 1.0 | 0.00 | 0.27 | 0.00 | 95 | 1009.1 |
| 20260830094902 | 68 | 41 | 0.0 | 1.0 | 0.00 | 0.27 | 0.00 | 95 | 1008.9 |
| 20260830094602 | 68 | 41 | 0.0 | 1.0 | 0.00 | 0.28 | 0.00 | 95 | 1008.8 |
| 20260830094504 | 68 | 41 | 0.0 | 0.0 | 0.00 | 0.28 | 0.00 | 95 | 1008.9 |
| 20260830094203 | 68 | 41 | 0.0 | 0.0 | 0.00 | 0.28 | 0.00 | 95 | 1008.8 |
| 20260830094101 | 68 | 42 | 0.0 | 0.0 | 0.00 | 0.28 | 0.00 | 95 | 1008.8 |
| 20260830094002 | 68 | 41 | 0.0 | 0.0 | 0.00 | 0.29 | 0.00 | 95 | 1008.8 |
| 20260830093803 | 68 | 41 | 0.0 | 1.0 | 0.00 | 0.29 | 0.00 | 95 | 1008.7 |
| 20260830093604 | 68 | 39 | 0.0 | 1.0 | 0.00 | 0.29 | 0.00 | 95 | 1008.7 |
| 20260830093506 | 68 | 39 | 0.0 | 1.0 | 0.00 | 0.30 | 0.00 | 95 | 1008.8 |
| 20260830093139 | 68 | 39 | 0.0 | 1.0 | 0.00 | 0.30 | 0.00 | 95 | 1008.8 |
| 20260830093042 | 68 | 41 | 0.0 | 1.0 | 0.00 | 0.30 | 0.00 | 95 | 1008.8 |
| 20260830093035 | 68 | 42 | 0.0 | 2.0 | 0.00 | 0.31 | 0.00 | 95 | 1008.8 |
| 20260830092738 | 68 | 41 | 0.0 | 2.0 | 0.00 | 0.31 | 0.00 | 95 | 1008.8 |
| 20260830092544 | 68 | 39 | 0.0 | 2.0 | 0.00 | 0.32 | 0.00 | 95 | 1008.8 |
| 20260830092540 | 68 | 41 | 0.0 | 2.0 | 0.00 | 0.32 | 0.00 | 95 | 1008.8 |
| 20260830092338 | 68 | 41 | 0.0 | 2.0 | 0.00 | 0.32 | 0.00 | 95 | 1008.8 |
| 20260830092137 | 68 | 41 | 0.0 | 2.0 | 0.00 | 0.33 | 0.00 | 95 | 1008.8 |
| 20260830092043 | 68 | 39 | 0.0 | 2.0 | 0.00 | 0.33 | 0.00 | 95 | 1008.7 |
| 20260830092037 | 68 | 41 | 0.0 | 2.0 | 0.00 | 0.33 | 0.00 | 95 | 1008.7 |
| 20260830091736 | 68 | 39 | 0.0 | 2.0 | 0.00 | 0.33 | 0.00 | 95 | 1008.6 |
| 20260830091637 | 68 | 39 | 0.0 | 2.0 | 0.00 | 0.34 | 0.00 | 95 | 1008.6 |
| 20260830091539 | 68 | 39 | 0.0 | 2.0 | 0.00 | 0.34 | 0.00 | 95 | 1008.6 |
| 20260830091333 | 68 | 41 | 0.0 | 2.0 | 0.00 | 0.34 | 0.00 | 95 | 1008.6 |
| 20260830091129 | 68 | 39 | 0.0 | 2.0 | 0.00 | 0.34 | 0.00 | 95 | 1008.7 |
| 20260830091039 | 68 | 39 | 0.0 | 2.0 | 0.00 | 0.34 | 0.00 | 95 | 1008.8 |
| 20260830090932 | 68 | 41 | 0.0 | 2.0 | 0.00 | 0.34 | 0.00 | 95 | 1008.8 |
| 20260830090730 | 68 | 39 | 0.0 | 2.0 | 0.00 | 0.34 | 0.00 | 95 | 1009.0 |
| 20260830090628 | 69 | 38 | 0.0 | 1.0 | 0.00 | 0.35 | 0.00 | 95 | 1009.0 |
| 20260830090539 | 69 | 39 | 0.0 | 1.0 | 0.00 | 0.35 | 0.00 | 95 | 1009.0 |
| 20260830090330 | 69 | 38 | 0.0 | 2.0 | 0.00 | 0.35 | 0.00 | 94 | 1009.0 |
| 20260830090131 | 69 | 39 | 0.0 | 2.0 | 0.00 | 0.35 | 0.00 | 94 | 1008.9 |
| 20260830090037 | 69 | 39 | 0.0 | 2.0 | 0.00 | 0.35 | 0.00 | 94 | 1008.9 |
| 20260830085932 | 69 | 38 | 0.0 | 2.0 | 0.00 | 0.35 | 0.00 | 94 | 1008.9 |
| 20260830085828 | 69 | 39 | 0.0 | 2.0 | 0.00 | 0.35 | 0.00 | 94 | 1008.9 |
| 20260830085626 | 69 | 41 | 0.0 | 2.0 | 0.00 | 0.35 | 0.00 | 94 | 1009.0 |
| 20260830085538 | 69 | 38 | 0.0 | 2.0 | 0.00 | 0.35 | 0.00 | 94 | 1009.0 |
| 20260830085326 | 69 | 38 | 0.0 | 2.0 | 0.00 | 0.35 | 0.00 | 94 | 1009.1 |
| 20260830085125 | 69 | 39 | 0.0 | 2.0 | 0.00 | 0.36 | 0.00 | 95 | 1009.0 |
| 20260830085038 | 69 | 38 | 0.0 | 2.0 | 0.00 | 0.36 | 0.00 | 95 | 1009.0 |
| 20260830084925 | 69 | 39 | 0.0 | 2.0 | 0.00 | 0.36 | 0.00 | 95 | 1009.1 |
| 20260830084832 | 69 | 38 | 0.0 | 2.0 | 0.00 | 0.36 | 0.00 | 94 | 1009.0 |
| 20260830084814 | 69 | 39 | 0.0 | 2.0 | 0.00 | 0.36 | 0.00 | 94 | 1009.1 |
| 20260830084526 | 69 | 38 | 0.0 | 2.0 | 0.00 | 0.36 | 0.00 | 94 | 1009.0 |
| 20260830084428 | 69 | 38 | 0.0 | 2.0 | 0.00 | 0.36 | 0.00 | 94 | 1009.0 |
| 20260830084222 | 69 | 39 | 0.0 | 1.0 | 0.00 | 0.37 | 0.00 | 94 | 1009.0 |
| 20260830084035 | 69 | 41 | 0.0 | 1.0 | 0.00 | 0.37 | 0.00 | 94 | 1009.0 |
| 20260830083921 | 69 | 39 | 0.0 | 1.0 | 0.00 | 0.37 | 0.00 | 94 | 1009.0 |
| 20260830083719 | 69 | 39 | 0.0 | 1.0 | 0.00 | 0.37 | 0.00 | 94 | 1009.0 |
| 20260830083520 | 69 | 38 | 0.0 | 1.0 | 0.00 | 0.37 | 0.00 | 94 | 1008.9 |
| 20260830083318 | 69 | 38 | 0.0 | 0.0 | 0.00 | 0.37 | 0.00 | 94 | 1008.9 |
| 20260830083119 | 69 | 37 | 0.0 | 0.0 | 0.00 | 0.37 | 0.00 | 94 | 1008.9 |
| 20260830083034 | 69 | 38 | 0.0 | 0.0 | 0.00 | 0.37 | 0.00 | 94 | 1009.0 |
| 20260830083016 | 69 | 38 | 0.0 | 0.0 | 0.00 | 0.37 | 0.00 | 94 | 1009.0 |
| 20260830082819 | 69 | 38 | 0.0 | 0.0 | 0.00 | 0.37 | 0.00 | 94 | 1009.1 |
| 20260830082534 | 69 | 37 | 0.0 | 0.0 | 0.00 | 0.37 | 0.00 | 94 | 1009.1 |
| 20260830082517 | 69 | 38 | 0.0 | 0.0 | 0.00 | 0.37 | 0.00 | 94 | 1009.1 |
| 20260830082316 | 69 | 38 | 0.0 | 0.0 | 0.00 | 0.37 | 0.00 | 94 | 1009.1 |
| 20260830082208 | 69 | 37 | 0.0 | 0.0 | 0.00 | 0.37 | 0.00 | 94 | 1009.2 |
| 20260830082034 | 69 | 39 | 0.0 | 0.0 | 0.00 | 0.37 | 0.00 | 94 | 1009.1 |
| 20260830081907 | 69 | 38 | 0.0 | 0.0 | 0.00 | 0.37 | 0.00 | 94 | 1009.0 |
| 20260830081704 | 69 | 38 | 0.0 | 0.0 | 0.00 | 0.37 | 0.00 | 94 | 1009.0 |
| 20260830081505 | 69 | 38 | 0.0 | 0.0 | 0.00 | 0.37 | 0.00 | 94 | 1009.0 |
| 20260830081304 | 69 | 37 | 0.0 | 0.0 | 0.00 | 0.37 | 0.00 | 94 | 1008.9 |
| 20260830081201 | 69 | 39 | 0.0 | 0.0 | 0.00 | 0.37 | 0.00 | 94 | 1009.0 |
| 20260830081031 | 69 | 38 | 0.0 | 0.0 | 0.00 | 0.37 | 0.00 | 94 | 1009.0 |
| 20260830080903 | 69 | 38 | 0.0 | 0.0 | 0.00 | 0.37 | 0.00 | 94 | 1009.0 |
| 20260830080759 | 69 | 39 | 0.0 | 1.0 | 0.00 | 0.37 | 0.00 | 94 | 1009.1 |
| 20260830080504 | 69 | 38 | 0.0 | 1.0 | 0.00 | 0.37 | 0.00 | 94 | 1009.1 |
| 20260830080329 | 70 | 38 | 0.0 | 2.0 | 0.00 | 0.37 | 0.00 | 94 | 1008.9 |
| 20260830080322 | 70 | 38 | 0.0 | 2.0 | 0.00 | 0.37 | 0.00 | 94 | 1009.0 |
| 20260830080249 | 70 | 38 | 0.0 | 2.0 | 0.00 | 0.37 | 0.00 | 94 | 1009.0 |
| 20260830075901 | 70 | 39 | 0.0 | 2.0 | 0.00 | 0.37 | 0.00 | 94 | 1009.0 |
| 20260830075756 | 69 | 38 | 0.0 | 2.0 | 0.00 | 0.37 | 0.00 | 94 | 1009.0 |
| 20260830075534 | 69 | 38 | 0.0 | 2.0 | 0.00 | 0.37 | 0.00 | 94 | 1008.8 |
| 20260830075458 | 69 | 38 | 0.0 | 2.0 | 0.00 | 0.37 | 0.00 | 94 | 1008.8 |
| 20260830075420 | 69 | 38 | 0.0 | 2.0 | 0.00 | 0.37 | 0.00 | 94 | 1008.8 |
| 20260830075320 | 70 | 38 | 0.0 | 2.0 | 0.00 | 0.37 | 0.00 | 94 | 1008.8 |
| 20260830075245 | 70 | 38 | 0.0 | 2.0 | 0.00 | 0.37 | 0.00 | 94 | 1008.9 |
| 20260830074857 | 70 | 38 | 0.0 | 2.0 | 0.00 | 0.37 | 0.00 | 94 | 1009.0 |
| 20260830074656 | 70 | 37 | 0.0 | 2.0 | 0.00 | 0.37 | 0.00 | 94 | 1009.0 |
| 20260830074529 | 69 | 38 | 0.0 | 1.0 | 0.00 | 0.37 | 0.00 | 94 | 1008.9 |
| 20260830074456 | 70 | 38 | 0.0 | 1.0 | 0.00 | 0.37 | 0.00 | 93 | 1008.9 |
| 20260830074326 | 70 | 37 | 0.0 | 1.0 | 0.00 | 0.37 | 0.00 | 93 | 1009.1 |
| 20260830074317 | 70 | 38 | 0.0 | 1.0 | 0.00 | 0.37 | 0.00 | 93 | 1009.0 |
| 20260830074244 | 69 | 38 | 0.0 | 1.0 | 0.00 | 0.37 | 0.00 | 93 | 1009.1 |
| 20260830073900 | 70 | 38 | 0.0 | 0.0 | 0.00 | 0.37 | 0.00 | 93 | 1009.2 |
| 20260830073854 | 70 | 39 | 0.0 | 0.0 | 0.00 | 0.37 | 0.00 | 93 | 1009.2 |
| 20260830073530 | 70 | 38 | 0.0 | 0.0 | 0.00 | 0.37 | 0.00 | 93 | 1009.1 |
| 20260830073454 | 70 | 38 | 0.0 | 0.0 | 0.00 | 0.37 | 0.00 | 93 | 1009.2 |
| 20260830073254 | 70 | 37 | 0.0 | 1.0 | 0.00 | 0.37 | 0.00 | 93 | 1009.2 |
| 20260830073053 | 70 | 39 | 0.0 | 1.0 | 0.00 | 0.37 | 0.00 | 93 | 1009.2 |
| 20260830073029 | 70 | 38 | 0.0 | 1.0 | 0.00 | 0.37 | 0.00 | 93 | 1009.2 |
| 20260830072852 | 70 | 38 | 0.0 | 1.0 | 0.00 | 0.37 | 0.00 | 93 | 1009.2 |
| 20260830072651 | 70 | 38 | 0.0 | 1.0 | 0.00 | 0.37 | 0.00 | 93 | 1009.1 |
| 20260830072526 | 70 | 39 | 0.0 | 1.0 | 0.00 | 0.37 | 0.00 | 93 | 1009.1 |
| 20260830072456 | 70 | 38 | 0.0 | 0.0 | 0.00 | 0.37 | 0.00 | 93 | 1009.1 |
| 20260830072450 | 70 | 37 | 0.0 | 1.0 | 0.00 | 0.37 | 0.00 | 93 | 1009.1 |
| 20260830072052 | 70 | 39 | 0.0 | 0.0 | 0.00 | 0.37 | 0.00 | 93 | 1009.1 |
| 20260830072025 | 70 | 38 | 0.0 | 0.0 | 0.00 | 0.37 | 0.00 | 93 | 1009.1 |
| 20260830071850 | 70 | 38 | 0.0 | 0.0 | 0.00 | 0.37 | 0.00 | 93 | 1009.2 |
| 20260830071650 | 70 | 38 | 0.0 | 0.0 | 0.00 | 0.37 | 0.00 | 93 | 1009.3 |
| 20260830071524 | 70 | 37 | 0.0 | 0.0 | 0.00 | 0.37 | 0.00 | 93 | 1009.3 |
| 20260830071448 | 70 | 39 | 0.0 | 0.0 | 0.00 | 0.37 | 0.00 | 93 | 1009.3 |
| 20260830071248 | 70 | 38 | 0.0 | 0.0 | 0.00 | 0.37 | 0.00 | 93 | 1009.3 |
| 20260830071043 | 70 | 38 | 0.0 | 0.0 | 0.00 | 0.37 | 0.00 | 93 | 1009.3 |
| 20260830071022 | 70 | 38 | 0.0 | 0.0 | 0.00 | 0.37 | 0.00 | 93 | 1009.4 |
| 20260830070646 | 70 | 38 | 0.0 | 0.0 | 0.00 | 0.37 | 0.00 | 92 | 1009.4 |
| 20260830070522 | 70 | 37 | 0.0 | 2.0 | 0.00 | 0.37 | 0.00 | 92 | 1009.4 |
| 20260830070444 | 70 | 38 | 0.0 | 2.0 | 0.00 | 0.37 | 0.00 | 92 | 1009.4 |
| 20260830070241 | 70 | 38 | 0.0 | 2.0 | 0.00 | 0.37 | 0.00 | 92 | 1009.4 |
| 20260830070041 | 70 | 39 | 0.0 | 2.0 | 0.00 | 0.37 | 0.00 | 93 | 1009.4 |
| 20260830070024 | 70 | 38 | 0.0 | 2.0 | 0.00 | 0.37 | 0.00 | 93 | 1009.4 |
| 20260830065943 | 70 | 39 | 0.0 | 2.0 | 0.00 | 0.37 | 0.00 | 93 | 1009.4 |
| 20260830065641 | 70 | 38 | 0.0 | 2.0 | 0.00 | 0.37 | 0.00 | 92 | 1009.4 |
| 20260830065537 | 70 | 39 | 0.0 | 2.0 | 0.00 | 0.37 | 0.00 | 92 | 1009.3 |
| 20260830065522 | 70 | 38 | 0.0 | 2.0 | 0.00 | 0.37 | 0.00 | 92 | 1009.3 |
| 20260830065240 | 70 | 38 | 0.0 | 2.0 | 0.00 | 0.37 | 0.00 | 92 | 1009.4 |
| 20260830065038 | 70 | 39 | 0.0 | 2.0 | 0.00 | 0.37 | 0.00 | 92 | 1009.3 |
| 20260830065021 | 70 | 38 | 0.0 | 2.0 | 0.00 | 0.37 | 0.00 | 92 | 1009.3 |
| 20260830064838 | 70 | 38 | 0.0 | 2.0 | 0.00 | 0.37 | 0.00 | 92 | 1009.3 |
| 20260830064635 | 70 | 38 | 0.0 | 2.0 | 0.00 | 0.37 | 0.00 | 92 | 1009.2 |
| 20260830064533 | 70 | 38 | 0.0 | 1.0 | 0.00 | 0.37 | 0.00 | 92 | 1009.4 |
| 20260830064512 | 70 | 37 | 0.0 | 1.0 | 0.00 | 0.37 | 0.00 | 92 | 1009.2 |
| 20260830064234 | 70 | 38 | 0.0 | 1.0 | 0.00 | 0.37 | 0.00 | 92 | 1009.3 |
| 20260830064133 | 70 | 39 | 0.0 | 1.0 | 0.00 | 0.37 | 0.00 | 92 | 1009.3 |
| 20260830064011 | 70 | 37 | 0.0 | 1.0 | 0.00 | 0.37 | 0.00 | 92 | 1009.3 |
| 20260830063833 | 70 | 37 | 0.0 | 1.0 | 0.00 | 0.37 | 0.00 | 92 | 1009.3 |
| 20260830063803 | 70 | 37 | 0.0 | 1.0 | 0.00 | 0.37 | 0.00 | 92 | 1009.2 |
| 20260830063743 | 70 | 38 | 0.0 | 1.0 | 0.00 | 0.37 | 0.00 | 92 | 1009.2 |
| 20260830063433 | 70 | 35 | 0.0 | 0.0 | 0.00 | 0.37 | 0.00 | 92 | 1009.2 |
| 20260830063231 | 70 | 35 | 0.0 | 0.0 | 0.00 | 0.37 | 0.00 | 92 | 1009.2 |
| 20260830063131 | 70 | 35 | 0.0 | 0.0 | 0.00 | 0.37 | 0.00 | 92 | 1009.3 |
| 20260830063009 | 70 | 35 | 0.0 | 0.0 | 0.00 | 0.37 | 0.00 | 92 | 1009.3 |
| 20260830062839 | 70 | 38 | 0.0 | 0.0 | 0.00 | 0.37 | 0.00 | 92 | 1009.3 |
| 20260830062830 | 70 | 35 | 0.0 | 0.0 | 0.00 | 0.37 | 0.00 | 92 | 1009.2 |
| 20260830062756 | 70 | 37 | 0.0 | 0.0 | 0.00 | 0.37 | 0.00 | 92 | 1009.4 |
| 20260830062433 | 70 | 38 | 0.0 | 0.0 | 0.00 | 0.38 | 0.00 | 92 | 1009.3 |
| 20260830062233 | 70 | 44 | 0.0 | 0.0 | 0.00 | 0.39 | 0.00 | 92 | 1009.3 |
| 20260830062032 | 70 | 44 | 0.0 | 0.0 | 0.00 | 0.39 | 0.00 | 92 | 1009.3 |
| 20260830062009 | 70 | 42 | 0.0 | 0.0 | 0.00 | 0.39 | 0.00 | 92 | 1009.3 |
| 20260830061839 | 70 | 42 | 0.0 | 0.0 | 0.00 | 0.39 | 0.00 | 92 | 1009.4 |
| 20260830061833 | 70 | 42 | 0.0 | 0.0 | 0.00 | 0.39 | 0.00 | 92 | 1009.4 |
| 20260830061749 | 70 | 42 | 0.0 | 0.0 | 0.00 | 0.39 | 0.00 | 92 | 1009.5 |
| 20260830061428 | 70 | 44 | 0.0 | 0.0 | 0.00 | 0.39 | 0.00 | 91 | 1009.4 |
| 20260830061326 | 70 | 44 | 0.0 | 0.0 | 0.00 | 0.39 | 0.00 | 91 | 1009.5 |
| 20260830061007 | 70 | 44 | 0.0 | 0.0 | 0.00 | 0.39 | 0.00 | 91 | 1009.6 |
| 20260830060810 | 70 | 42 | 0.0 | 0.0 | 0.00 | 0.39 | 0.00 | 91 | 1009.6 |
| 20260830060609 | 70 | 45 | 0.0 | 0.0 | 0.00 | 0.39 | 0.00 | 91 | 1009.6 |
| 20260830060506 | 70 | 44 | 0.0 | 0.0 | 0.00 | 0.39 | 0.00 | 91 | 1009.7 |
| 20260830060409 | 70 | 44 | 0.0 | 0.0 | 0.00 | 0.39 | 0.00 | 91 | 1009.7 |
| 20260830060350 | 70 | 44 | 0.0 | 0.0 | 0.00 | 0.39 | 0.00 | 91 | 1009.8 |
| 20260830060302 | 70 | 42 | 0.0 | 0.0 | 0.00 | 0.39 | 0.00 | 91 | 1009.9 |
| 20260830060217 | 70 | 42 | 0.0 | 0.0 | 0.00 | 0.39 | 0.00 | 91 | 1009.9 |
| 20260830055902 | 70 | 44 | 0.0 | 0.0 | 0.00 | 0.39 | 0.00 | 91 | 1010.0 |
| 20260830055604 | 71 | 45 | 0.0 | 0.0 | 0.00 | 0.39 | 0.00 | 91 | 1009.9 |
| 20260830055505 | 71 | 44 | 0.0 | 0.0 | 0.00 | 0.39 | 0.00 | 91 | 1010.0 |
| 20260830055405 | 71 | 44 | 0.0 | 0.0 | 0.00 | 0.39 | 0.00 | 91 | 1009.8 |
| 20260830055306 | 71 | 44 | 0.0 | 0.0 | 0.00 | 0.39 | 0.00 | 91 | 1009.9 |
| 20260830055249 | 71 | 44 | 0.0 | 0.0 | 0.00 | 0.39 | 0.00 | 91 | 1009.9 |
| 20260830055215 | 71 | 44 | 0.0 | 0.0 | 0.00 | 0.39 | 0.00 | 91 | 1009.9 |
| 20260830054903 | 71 | 44 | 0.0 | 0.0 | 0.00 | 0.39 | 0.00 | 91 | 1009.9 |
| 20260830054607 | 71 | 44 | 0.0 | 0.0 | 0.00 | 0.39 | 0.00 | 91 | 1009.9 |
| 20260830054508 | 71 | 44 | 0.0 | 0.0 | 0.00 | 0.39 | 0.00 | 91 | 1009.9 |
| 20260830054502 | 71 | 44 | 0.0 | 0.0 | 0.00 | 0.39 | 0.00 | 91 | 1009.9 |
| 20260830054347 | 71 | 44 | 0.0 | 0.0 | 0.00 | 0.39 | 0.00 | 91 | 1009.9 |
| 20260830054254 | 71 | 44 | 0.0 | 0.0 | 0.00 | 0.39 | 0.00 | 91 | 1009.9 |
| 20260830054002 | 71 | 42 | 0.0 | 0.0 | 0.00 | 0.39 | 0.00 | 91 | 1009.9 |
| 20260830053802 | 71 | 44 | 0.0 | 0.0 | 0.00 | 0.39 | 0.00 | 91 | 1009.9 |
| 20260830053602 | 71 | 44 | 0.0 | 0.0 | 0.00 | 0.39 | 0.00 | 91 | 1009.9 |
| 20260830053506 | 71 | 45 | 0.0 | 0.0 | 0.00 | 0.39 | 0.00 | 90 | 1009.9 |
| 20260830053502 | 71 | 44 | 0.0 | 0.0 | 0.00 | 0.39 | 0.00 | 91 | 1009.9 |
| 20260830053255 | 71 | 45 | 0.0 | 0.0 | 0.00 | 0.39 | 0.00 | 90 | 1009.9 |
| 20260830053242 | 71 | 44 | 0.0 | 0.0 | 0.00 | 0.39 | 0.00 | 90 | 1009.9 |
| 20260830052958 | 71 | 45 | 0.0 | 0.0 | 0.00 | 0.39 | 0.00 | 90 | 1009.9 |
| 20260830052856 | 71 | 45 | 0.0 | 0.0 | 0.00 | 0.39 | 0.00 | 90 | 1009.9 |
| 20260830052559 | 71 | 47 | 0.0 | 0.0 | 0.00 | 0.39 | 0.00 | 90 | 1009.9 |
| 20260830052500 | 71 | 44 | 0.0 | 0.0 | 0.00 | 0.39 | 0.00 | 90 | 1009.9 |
| 20260830052351 | 71 | 45 | 0.0 | 0.0 | 0.00 | 0.39 | 0.00 | 90 | 1009.9 |
| 20260830052154 | 71 | 45 | 0.0 | 0.0 | 0.00 | 0.39 | 0.00 | 90 | 1009.9 |
| 20260830052052 | 71 | 45 | 0.0 | 0.0 | 0.00 | 0.39 | 0.00 | 90 | 1009.9 |
| 20260830052000 | 71 | 44 | 0.0 | 0.0 | 0.00 | 0.39 | 0.00 | 90 | 1009.9 |
| 20260830051804 | 71 | 45 | 0.0 | 0.0 | 0.00 | 0.39 | 0.00 | 90 | 1009.9 |
| 20260830051755 | 71 | 45 | 0.0 | 0.0 | 0.00 | 0.39 | 0.00 | 90 | 1009.9 |
| 20260830051726 | 71 | 44 | 0.0 | 0.0 | 0.00 | 0.39 | 0.00 | 90 | 1009.9 |
| 20260830051444 | 71 | 45 | 0.0 | 0.0 | 0.00 | 0.39 | 0.00 | 90 | 1009.9 |
| 20260830051141 | 71 | 45 | 0.0 | 0.0 | 0.00 | 0.39 | 0.00 | 90 | 1010.0 |
| 20260830050940 | 71 | 44 | 0.0 | 0.0 | 0.00 | 0.39 | 0.00 | 90 | 1010.0 |
| 20260830050825 | 71 | 44 | 0.0 | 0.0 | 0.00 | 0.39 | 0.00 | 90 | 1009.9 |
| 20260830050758 | 71 | 45 | 0.0 | 0.0 | 0.00 | 0.39 | 0.00 | 90 | 1009.9 |
| 20260830050752 | 71 | 44 | 0.0 | 0.0 | 0.00 | 0.39 | 0.00 | 90 | 1010.0 |
| 20260830050337 | 71 | 42 | 0.0 | 0.0 | 0.00 | 0.39 | 0.00 | 90 | 1009.8 |
| 20260830050238 | 71 | 42 | 0.0 | 0.0 | 0.00 | 0.39 | 0.00 | 90 | 1009.9 |
| 20260830050002 | 71 | 42 | 0.0 | 0.0 | 0.00 | 0.39 | 0.39 | 90 | 1009.9 |
| 20260830045936 | 71 | 42 | 0.0 | 0.0 | 0.00 | 0.39 | 0.39 | 90 | 1010.0 |
| 20260830045803 | 71 | 41 | 0.0 | 0.0 | 0.00 | 0.39 | 0.39 | 89 | 1009.9 |
| 20260830045754 | 71 | 42 | 0.0 | 0.0 | 0.00 | 0.39 | 0.39 | 90 | 1009.9 |
| 20260830045722 | 71 | 42 | 0.0 | 0.0 | 0.00 | 0.39 | 0.39 | 89 | 1009.9 |
| 20260830045334 | 71 | 41 | 0.0 | 0.0 | 0.00 | 0.39 | 0.39 | 89 | 1010.0 |
| 20260830045229 | 71 | 42 | 0.0 | 0.0 | 0.00 | 0.39 | 0.39 | 89 | 1010.0 |
| 20260830044958 | 71 | 41 | 0.0 | 0.0 | 0.00 | 0.39 | 0.39 | 89 | 1010.0 |
| 20260830044931 | 71 | 41 | 0.0 | 0.0 | 0.00 | 0.39 | 0.39 | 89 | 1009.9 |
| 20260830044834 | 71 | 42 | 0.0 | 0.0 | 0.00 | 0.39 | 0.39 | 89 | 1010.0 |
| 20260830044530 | 71 | 42 | 0.0 | 0.0 | 0.00 | 0.39 | 0.39 | 89 | 1010.1 |
| 20260830044500 | 71 | 41 | 0.0 | 0.0 | 0.00 | 0.39 | 0.39 | 89 | 1010.1 |
| 20260830044330 | 71 | 42 | 0.0 | 0.0 | 0.00 | 0.39 | 0.39 | 89 | 1010.1 |
| 20260830044130 | 71 | 42 | 0.0 | 0.0 | 0.00 | 0.39 | 0.39 | 89 | 1010.1 |
| 20260830044000 | 71 | 42 | 0.0 | 0.0 | 0.00 | 0.39 | 0.39 | 89 | 1010.1 |
| 20260830043930 | 71 | 42 | 0.0 | 0.0 | 0.00 | 0.39 | 0.39 | 89 | 1010.1 |
| 20260830043832 | 71 | 41 | 0.0 | 0.0 | 0.00 | 0.39 | 0.39 | 89 | 1010.0 |
| 20260830043529 | 72 | 42 | 0.0 | 0.0 | 0.00 | 0.39 | 0.39 | 89 | 1010.1 |
| 20260830043500 | 72 | 42 | 0.0 | 0.0 | 0.00 | 0.39 | 0.39 | 89 | 1010.1 |
| 20260830043430 | 72 | 42 | 0.0 | 0.0 | 0.00 | 0.39 | 0.39 | 88 | 1010.1 |
| 20260830043131 | 72 | 38 | 0.0 | 0.0 | 0.00 | 0.39 | 0.39 | 88 | 1010.1 |
| 20260830043000 | 72 | 39 | 0.0 | 0.0 | 0.00 | 0.39 | 0.39 | 88 | 1010.1 |
| 20260830042930 | 72 | 39 | 0.0 | 0.0 | 0.00 | 0.39 | 0.39 | 88 | 1010.1 |
| 20260830042730 | 72 | 38 | 0.0 | 0.0 | 0.00 | 0.39 | 0.39 | 88 | 1010.1 |
| 20260830042531 | 72 | 39 | 0.0 | 0.0 | 0.00 | 0.39 | 0.39 | 88 | 1010.2 |
| 20260830042459 | 72 | 39 | 0.0 | 0.0 | 0.00 | 0.39 | 0.39 | 88 | 1010.1 |
| 20260830042432 | 72 | 39 | 0.0 | 0.0 | 0.00 | 0.39 | 0.39 | 88 | 1010.2 |
| 20260830042116 | 72 | 38 | 0.0 | 0.0 | 0.00 | 0.39 | 0.39 | 88 | 1010.3 |
| 20260830042016 | 72 | 38 | 0.0 | 0.0 | 0.00 | 0.39 | 0.39 | 88 | 1010.3 |
| 20260830042000 | 72 | 39 | 0.0 | 0.0 | 0.00 | 0.39 | 0.39 | 88 | 1010.3 |
| 20260830041842 | 72 | 39 | 0.0 | 0.0 | 0.00 | 0.39 | 0.39 | 88 | 1010.3 |
| 20260830041750 | 72 | 38 | 0.0 | 0.0 | 0.00 | 0.39 | 0.39 | 88 | 1010.3 |
| 20260830041716 | 72 | 38 | 0.0 | 0.0 | 0.00 | 0.39 | 0.39 | 88 | 1010.3 |
| 20260830041310 | 72 | 39 | 0.0 | 0.0 | 0.00 | 0.39 | 0.39 | 87 | 1010.2 |
| 20260830041107 | 72 | 37 | 0.0 | 0.0 | 0.00 | 0.39 | 0.39 | 87 | 1010.2 |
| 20260830041003 | 72 | 38 | 0.0 | 0.0 | 0.00 | 0.39 | 0.39 | 87 | 1010.3 |
| 20260830040907 | 72 | 38 | 0.0 | 0.0 | 0.00 | 0.39 | 0.39 | 87 | 1010.3 |
| 20260830040707 | 72 | 37 | 0.0 | 0.0 | 0.00 | 0.39 | 0.39 | 87 | 1010.3 |
| 20260830040604 | 73 | 37 | 0.0 | 0.0 | 0.00 | 0.39 | 0.39 | 87 | 1010.4 |
| 20260830040458 | 73 | 38 | 0.0 | 0.0 | 0.00 | 0.39 | 0.39 | 87 | 1010.4 |
| 20260830040402 | 73 | 38 | 0.0 | 0.0 | 0.00 | 0.39 | 0.39 | 87 | 1010.4 |
| 20260830040244 | 73 | 38 | 0.0 | 0.0 | 0.00 | 0.39 | 0.39 | 87 | 1010.5 |
| 20260830040227 | 73 | 37 | 0.0 | 0.0 | 0.00 | 0.39 | 0.39 | 87 | 1010.4 |
| 20260830035905 | 73 | 38 | 0.0 | 0.0 | 0.00 | 0.39 | 0.39 | 87 | 1010.4 |
| 20260830035704 | 73 | 38 | 0.0 | 0.0 | 0.00 | 0.39 | 0.39 | 86 | 1010.4 |
| 20260830035506 | 73 | 39 | 0.0 | 0.0 | 0.00 | 0.39 | 0.39 | 86 | 1010.4 |
| 20260830035458 | 73 | 37 | 0.0 | 0.0 | 0.00 | 0.39 | 0.39 | 86 | 1010.4 |
| 20260830035348 | 73 | 37 | 0.0 | 0.0 | 0.00 | 0.39 | 0.39 | 86 | 1010.4 |
| 20260830035306 | 73 | 37 | 0.0 | 0.0 | 0.00 | 0.39 | 0.39 | 86 | 1010.4 |
| 20260830035248 | 73 | 38 | 0.0 | 0.0 | 0.00 | 0.39 | 0.39 | 86 | 1010.5 |
| 20260830035229 | 73 | 37 | 0.0 | 0.0 | 0.00 | 0.39 | 0.39 | 86 | 1010.4 |
| 20260830034705 | 73 | 38 | 0.0 | 0.0 | 0.00 | 0.39 | 0.39 | 86 | 1010.5 |
| 20260830034508 | 73 | 37 | 0.0 | 0.0 | 0.00 | 0.39 | 0.39 | 86 | 1010.5 |
| 20260830034458 | 73 | 37 | 0.0 | 0.0 | 0.00 | 0.39 | 0.39 | 86 | 1010.5 |
| 20260830034305 | 73 | 37 | 0.0 | 0.0 | 0.00 | 0.39 | 0.39 | 86 | 1010.5 |
| 20260830034247 | 73 | 37 | 0.0 | 0.0 | 0.00 | 0.39 | 0.39 | 86 | 1010.5 |
| 20260830034226 | 73 | 37 | 0.0 | 0.0 | 0.00 | 0.39 | 0.39 | 86 | 1010.5 |
| 20260830033903 | 73 | 35 | 0.0 | 0.0 | 0.00 | 0.39 | 0.39 | 86 | 1010.6 |
| 20260830033759 | 73 | 37 | 0.0 | 0.0 | 0.00 | 0.39 | 0.39 | 86 | 1010.6 |
| 20260830033459 | 74 | 47 | 0.0 | 0.0 | 0.00 | 0.39 | 0.39 | 85 | 1010.6 |
| 20260830033259 | 74 | 48 | 0.0 | 0.0 | 0.00 | 0.39 | 0.39 | 85 | 1010.5 |
| 20260830033248 | 74 | 52 | 0.0 | 0.0 | 0.00 | 0.39 | 0.39 | 85 | 1010.4 |
| 20260830033225 | 74 | 52 | 0.0 | 0.0 | 0.00 | 0.39 | 0.39 | 85 | 1010.5 |
| 20260830032901 | 74 | 55 | 0.0 | 0.0 | 0.00 | 0.39 | 0.39 | 85 | 1010.5 |
| 20260830032803 | 74 | 47 | 0.0 | 0.0 | 0.00 | 0.39 | 0.39 | 85 | 1010.6 |
| 20260830032459 | 74 | 87 | 0.0 | 0.0 | 0.00 | 0.39 | 0.39 | 85 | 1010.6 |
| 20260830032402 | 74 | 42 | 0.0 | 0.0 | 0.00 | 0.39 | 0.39 | 85 | 1010.6 |
| 20260830032250 | 74 | 37 | 0.0 | 0.0 | 0.00 | 0.39 | 0.39 | 85 | 1010.6 |
| 20260830032227 | 74 | 41 | 0.0 | 0.0 | 0.00 | 0.39 | 0.39 | 85 | 1010.5 |
| 20260830031903 | 74 | 39 | 0.0 | 0.0 | 0.00 | 0.39 | 0.39 | 85 | 1010.6 |
| 20260830031701 | 74 | 34 | 0.0 | 0.0 | 0.00 | 0.39 | 0.39 | 85 | 1010.5 |
| 20260830031501 | 74 | 32 | 0.0 | 0.0 | 0.00 | 0.39 | 0.39 | 85 | 1010.6 |
| 20260830031406 | 74 | 47 | 0.0 | 0.0 | 0.00 | 0.39 | 0.39 | 85 | 1010.7 |
| 20260830031104 | 74 | 133 | 0.0 | 0.0 | 0.00 | 0.39 | 0.39 | 85 | 1010.7 |
| 20260830031006 | 74 | 134 | 0.0 | 0.0 | 0.00 | 0.39 | 0.39 | 85 | 1010.6 |
| 20260830031000 | 74 | 131 | 0.0 | 0.0 | 0.00 | 0.39 | 0.39 | 85 | 1010.7 |
| 20260830030702 | 74 | 109 | 0.0 | 0.0 | 0.00 | 0.39 | 0.39 | 85 | 1010.7 |
| 20260830030501 | 74 | 6 | 0.0 | 0.0 | 0.00 | 0.39 | 0.39 | 85 | 1010.4 |
| 20260830030302 | 74 | 6 | 0.0 | 0.0 | 0.00 | 0.39 | 0.39 | 85 | 1010.3 |
| 20260830030002 | 74 | 151 | 0.0 | 0.0 | 0.00 | 0.39 | 0.39 | 85 | 1010.3 |
| 20260830025904 | 74 | 154 | 0.0 | 0.0 | 0.00 | 0.39 | 0.39 | 85 | 1010.3 |
| 20260830025702 | 74 | 127 | 0.0 | 0.0 | 0.00 | 0.39 | 0.39 | 85 | 1010.2 |
| 20260830025502 | 74 | 133 | 0.0 | 0.0 | 0.00 | 0.39 | 0.39 | 85 | 1010.2 |
| 20260830025439 | 74 | 72 | 0.0 | 0.0 | 0.00 | 0.39 | 0.39 | 85 | 1010.1 |
| 20260830025301 | 74 | 82 | 0.0 | 0.0 | 0.00 | 0.39 | 0.39 | 85 | 1010.1 |
| 20260830025102 | 74 | 333 | 0.0 | 0.0 | 0.00 | 0.39 | 0.39 | 85 | 1010.1 |
| 20260830024941 | 74 | 235 | 0.0 | 0.0 | 0.00 | 0.39 | 0.39 | 85 | 1010.1 |
| 20260830024903 | 74 | 178 | 0.0 | 0.0 | 0.00 | 0.39 | 0.39 | 85 | 1010.1 |